| time (UTC) | temp F | wind direction | speed MPH | gust MPH | rain 1hr in | rain 24hr in | rain mn in | humidity % | barometer mb |
| 20260904145617 | 74 | 232 | 2.0 | 7.0 | 0.00 | 0.00 | 0.00 | 100 | 955.4 |
| 20260904145414 | 74 | 228 | 2.0 | 10.0 | 0.00 | 0.00 | 0.00 | 100 | 955.4 |
| 20260904145321 | 74 | 194 | 2.0 | 10.0 | 0.00 | 0.00 | 0.00 | 100 | 955.4 |
| 20260904145008 | 73 | 187 | 2.0 | 7.0 | 0.00 | 0.00 | 0.00 | 100 | 955.5 |
| 20260904144804 | 74 | 217 | 2.0 | 9.0 | 0.00 | 0.00 | 0.00 | 100 | 955.4 |
| 20260904144704 | 74 | 218 | 2.0 | 12.0 | 0.00 | 0.00 | 0.00 | 100 | 955.5 |
| 20260904144601 | 73 | 217 | 3.0 | 12.0 | 0.00 | 0.00 | 0.00 | 100 | 955.4 |
| 20260904144358 | 74 | 218 | 2.0 | 12.0 | 0.00 | 0.00 | 0.00 | 100 | 955.5 |
| 20260904144155 | 74 | 205 | 2.0 | 8.0 | 0.00 | 0.00 | 0.00 | 100 | 955.5 |
| 20260904144054 | 74 | 202 | 2.0 | 8.0 | 0.00 | 0.00 | 0.00 | 100 | 955.5 |
| 20260904143952 | 74 | 204 | 2.0 | 8.0 | 0.00 | 0.00 | 0.00 | 100 | 955.5 |
| 20260904143749 | 74 | 266 | 4.0 | 14.0 | 0.00 | 0.00 | 0.00 | 100 | 955.6 |
| 20260904143546 | 74 | 283 | 5.0 | 14.0 | 0.00 | 0.00 | 0.00 | 100 | 955.7 |
| 20260904143446 | 74 | 282 | 4.0 | 14.0 | 0.00 | 0.00 | 0.00 | 100 | 955.5 |
| 20260904143343 | 74 | 268 | 3.0 | 10.0 | 0.00 | 0.00 | 0.00 | 100 | 955.7 |
| 20260904143141 | 75 | 218 | 2.0 | 6.0 | 0.00 | 0.00 | 0.00 | 100 | 955.8 |
| 20260904142937 | 75 | 176 | 3.0 | 9.0 | 0.00 | 0.00 | 0.00 | 100 | 955.8 |
| 20260904142836 | 75 | 170 | 3.0 | 9.0 | 0.00 | 0.00 | 0.00 | 100 | 955.7 |
| 20260904142734 | 74 | 181 | 3.0 | 9.0 | 0.00 | 0.00 | 0.00 | 100 | 955.8 |
| 20260904142531 | 74 | 176 | 3.0 | 8.0 | 0.00 | 0.00 | 0.00 | 100 | 955.7 |
| 20260904142328 | 75 | 168 | 2.0 | 8.0 | 0.00 | 0.00 | 0.00 | 100 | 955.7 |
| 20260904142227 | 75 | 177 | 2.0 | 8.0 | 0.00 | 0.00 | 0.00 | 100 | 955.8 |
| 20260904142125 | 75 | 174 | 2.0 | 8.0 | 0.00 | 0.00 | 0.00 | 100 | 955.7 |
| 20260904141922 | 75 | 209 | 3.0 | 11.0 | 0.00 | 0.00 | 0.00 | 100 | 955.8 |
| 20260904141718 | 74 | 216 | 3.0 | 11.0 | 0.00 | 0.00 | 0.00 | 100 | 955.8 |
| 20260904141618 | 74 | 222 | 3.0 | 11.0 | 0.00 | 0.00 | 0.00 | 100 | 955.7 |
| 20260904141515 | 74 | 210 | 3.0 | 9.0 | 0.00 | 0.00 | 0.00 | 100 | 955.8 |
| 20260904141312 | 74 | 205 | 3.0 | 11.0 | 0.00 | 0.00 | 0.00 | 100 | 955.7 |
| 20260904141109 | 74 | 213 | 2.0 | 11.0 | 0.00 | 0.00 | 0.00 | 100 | 955.6 |
| 20260904141008 | 74 | 212 | 3.0 | 11.0 | 0.00 | 0.00 | 0.00 | 100 | 955.8 |
| 20260904140907 | 74 | 214 | 2.0 | 9.0 | 0.00 | 0.00 | 0.00 | 100 | 955.8 |
| 20260904140704 | 74 | 214 | 2.0 | 9.0 | 0.00 | 0.00 | 0.00 | 100 | 955.9 |
| 20260904140500 | 74 | 220 | 2.0 | 7.0 | 0.00 | 0.00 | 0.00 | 100 | 955.9 |
| 20260904140359 | 74 | 207 | 2.0 | 10.0 | 0.00 | 0.00 | 0.00 | 100 | 955.9 |
| 20260904140257 | 74 | 209 | 2.0 | 10.0 | 0.00 | 0.00 | 0.00 | 100 | 956.0 |
| 20260904140054 | 73 | 214 | 2.0 | 10.0 | 0.00 | 0.00 | 0.00 | 100 | 956.0 |
| 20260904135851 | 73 | 236 | 2.0 | 8.0 | 0.00 | 0.00 | 0.00 | 100 | 956.0 |
| 20260904135749 | 74 | 235 | 2.0 | 7.0 | 0.00 | 0.00 | 0.00 | 100 | 956.1 |
| 20260904135647 | 74 | 235 | 2.0 | 7.0 | 0.00 | 0.00 | 0.00 | 100 | 956.0 |
| 20260904135444 | 74 | 225 | 2.0 | 7.0 | 0.00 | 0.00 | 0.00 | 100 | 956.1 |
| 20260904135241 | 73 | 187 | 2.0 | 7.0 | 0.00 | 0.00 | 0.00 | 100 | 956.0 |
| 20260904135141 | 73 | 186 | 3.0 | 7.0 | 0.00 | 0.00 | 0.00 | 100 | 956.1 |
| 20260904135038 | 73 | 183 | 3.0 | 10.0 | 0.00 | 0.00 | 0.00 | 100 | 956.1 |
| 20260904134835 | 73 | 217 | 3.0 | 10.0 | 0.00 | 0.00 | 0.00 | 100 | 956.0 |
| 20260904134632 | 73 | 255 | 2.0 | 9.0 | 0.00 | 0.00 | 0.00 | 100 | 956.0 |
| 20260904134531 | 73 | 246 | 2.0 | 8.0 | 0.00 | 0.00 | 0.00 | 100 | 956.1 |
| 20260904134429 | 73 | 222 | 2.0 | 7.0 | 0.00 | 0.00 | 0.00 | 100 | 956.1 |
| 20260904134225 | 73 | 246 | 2.0 | 8.0 | 0.00 | 0.00 | 0.00 | 100 | 956.2 |
| 20260904134023 | 73 | 226 | 2.0 | 10.0 | 0.00 | 0.00 | 0.00 | 100 | 956.3 |
| 20260904133922 | 73 | 214 | 2.0 | 10.0 | 0.00 | 0.00 | 0.00 | 100 | 956.3 |
| 20260904133819 | 73 | 214 | 2.0 | 10.0 | 0.00 | 0.00 | 0.00 | 100 | 956.3 |
| 20260904133616 | 73 | 230 | 2.0 | 9.0 | 0.00 | 0.00 | 0.00 | 100 | 956.3 |
| 20260904133413 | 73 | 233 | 2.0 | 7.0 | 0.00 | 0.00 | 0.00 | 100 | 956.3 |
| 20260904133313 | 73 | 227 | 2.0 | 7.0 | 0.00 | 0.00 | 0.00 | 100 | 956.3 |
| 20260904133211 | 73 | 225 | 2.0 | 7.0 | 0.00 | 0.00 | 0.00 | 100 | 956.3 |
| 20260904133008 | 73 | 228 | 2.0 | 9.0 | 0.00 | 0.00 | 0.00 | 100 | 956.4 |
| 20260904132805 | 73 | 239 | 2.0 | 9.0 | 0.00 | 0.00 | 0.00 | 100 | 956.5 |
| 20260904132704 | 73 | 233 | 2.0 | 9.0 | 0.00 | 0.00 | 0.00 | 100 | 956.5 |
| 20260904132601 | 73 | 243 | 2.0 | 8.0 | 0.00 | 0.00 | 0.00 | 100 | 956.5 |
| 20260904132359 | 73 | 211 | 2.0 | 11.0 | 0.00 | 0.00 | 0.00 | 100 | 956.5 |
| 20260904132156 | 73 | 214 | 3.0 | 13.0 | 0.00 | 0.00 | 0.00 | 100 | 956.3 |
| 20260904132055 | 73 | 235 | 3.0 | 13.0 | 0.00 | 0.00 | 0.00 | 100 | 956.5 |
| 20260904131953 | 73 | 238 | 3.0 | 13.0 | 0.00 | 0.00 | 0.00 | 100 | 956.4 |
| 20260904131751 | 73 | 252 | 2.0 | 13.0 | 0.00 | 0.00 | 0.00 | 100 | 956.5 |
| 20260904131548 | 73 | 234 | 3.0 | 13.0 | 0.00 | 0.00 | 0.00 | 100 | 956.6 |
| 20260904131447 | 73 | 213 | 2.0 | 13.0 | 0.00 | 0.00 | 0.00 | 100 | 956.6 |
| 20260904131344 | 74 | 217 | 2.0 | 10.0 | 0.00 | 0.00 | 0.00 | 100 | 956.5 |
| 20260904131141 | 74 | 217 | 2.0 | 7.0 | 0.00 | 0.00 | 0.00 | 100 | 956.5 |
| 20260904130939 | 74 | 236 | 2.0 | 10.0 | 0.00 | 0.00 | 0.00 | 100 | 956.5 |
| 20260904130838 | 74 | 220 | 2.0 | 10.0 | 0.00 | 0.00 | 0.00 | 100 | 956.5 |
| 20260904130735 | 74 | 228 | 2.0 | 9.0 | 0.00 | 0.00 | 0.00 | 100 | 956.5 |
| 20260904130533 | 75 | 218 | 2.0 | 10.0 | 0.00 | 0.00 | 0.00 | 100 | 956.6 |
| 20260904130320 | 74 | 232 | 3.0 | 18.0 | 0.00 | 0.00 | 0.00 | 100 | 956.6 |
| 20260904130219 | 74 | 232 | 3.0 | 18.0 | 0.00 | 0.00 | 0.00 | 100 | 956.6 |
| 20260904130117 | 74 | 240 | 4.0 | 18.0 | 0.00 | 0.00 | 0.00 | 100 | 956.6 |
| 20260904125914 | 74 | 238 | 3.0 | 18.0 | 0.00 | 0.00 | 0.00 | 100 | 956.4 |
| 20260904125710 | 74 | 233 | 2.0 | 11.0 | 0.00 | 0.00 | 0.00 | 100 | 956.6 |
| 20260904125610 | 74 | 244 | 2.0 | 8.0 | 0.00 | 0.00 | 0.00 | 100 | 956.6 |
| 20260904125507 | 74 | 224 | 2.0 | 8.0 | 0.00 | 0.00 | 0.00 | 100 | 956.6 |
| 20260904125305 | 74 | 218 | 2.0 | 12.0 | 0.00 | 0.00 | 0.00 | 100 | 956.6 |
| 20260904125100 | 73 | 216 | 3.0 | 12.0 | 0.00 | 0.00 | 0.00 | 100 | 956.7 |
| 20260904125000 | 73 | 212 | 2.0 | 9.0 | 0.00 | 0.00 | 0.00 | 100 | 956.8 |
| 20260904124857 | 73 | 215 | 2.0 | 9.0 | 0.00 | 0.00 | 0.00 | 100 | 956.8 |
| 20260904124655 | 73 | 228 | 2.0 | 9.0 | 0.00 | 0.00 | 0.00 | 100 | 956.8 |
| 20260904124451 | 73 | 229 | 2.0 | 10.0 | 0.00 | 0.00 | 0.00 | 100 | 956.9 |
| 20260904124351 | 73 | 232 | 2.0 | 12.0 | 0.00 | 0.00 | 0.00 | 100 | 956.9 |
| 20260904124248 | 73 | 224 | 2.0 | 12.0 | 0.00 | 0.00 | 0.00 | 100 | 957.0 |
| 20260904124045 | 72 | 215 | 2.0 | 12.0 | 0.00 | 0.00 | 0.00 | 100 | 956.9 |
| 20260904123842 | 72 | 220 | 2.0 | 11.0 | 0.00 | 0.00 | 0.00 | 100 | 957.1 |
| 20260904123741 | 72 | 225 | 2.0 | 11.0 | 0.00 | 0.00 | 0.00 | 100 | 957.1 |
| 20260904123639 | 72 | 223 | 2.0 | 11.0 | 0.00 | 0.00 | 0.00 | 100 | 957.0 |
| 20260904123436 | 72 | 236 | 2.0 | 13.0 | 0.00 | 0.00 | 0.00 | 100 | 957.1 |
| 20260904123233 | 73 | 200 | 4.0 | 14.0 | 0.00 | 0.00 | 0.00 | 100 | 957.1 |
| 20260904123132 | 72 | 200 | 5.0 | 15.0 | 0.00 | 0.00 | 0.00 | 100 | 957.1 |
| 20260904123029 | 72 | 190 | 5.0 | 15.0 | 0.00 | 0.00 | 0.00 | 100 | 957.1 |
| 20260904122826 | 72 | 182 | 3.0 | 15.0 | 0.00 | 0.00 | 0.00 | 100 | 957.1 |
| 20260904122623 | 73 | 234 | 2.0 | 8.0 | 0.00 | 0.00 | 0.00 | 100 | 957.3 |
| 20260904122420 | 73 | 211 | 2.0 | 9.0 | 0.00 | 0.00 | 0.00 | 100 | 957.2 |
| 20260904122217 | 73 | 217 | 2.0 | 9.0 | 0.00 | 0.00 | 0.00 | 100 | 957.2 |
| 20260904122014 | 74 | 220 | 2.0 | 8.0 | 0.00 | 0.00 | 0.00 | 100 | 957.3 |
| 20260904121913 | 73 | 231 | 2.0 | 10.0 | 0.00 | 0.00 | 0.00 | 100 | 957.3 |
| 20260904121811 | 73 | 236 | 2.0 | 10.0 | 0.00 | 0.00 | 0.00 | 100 | 957.3 |
| 20260904121607 | 72 | 241 | 2.0 | 10.0 | 0.00 | 0.00 | 0.00 | 100 | 957.3 |
| 20260904121404 | 73 | 225 | 2.0 | 14.0 | 0.00 | 0.00 | 0.00 | 100 | 957.3 |
| 20260904121303 | 72 | 228 | 2.0 | 14.0 | 0.00 | 0.00 | 0.00 | 100 | 957.4 |
| 20260904121201 | 73 | 222 | 2.0 | 14.0 | 0.00 | 0.00 | 0.00 | 100 | 957.4 |
| 20260904120957 | 73 | 206 | 2.0 | 9.0 | 0.00 | 0.00 | 0.00 | 100 | 957.4 |
| 20260904120755 | 73 | 210 | 3.0 | 9.0 | 0.00 | 0.00 | 0.00 | 100 | 957.5 |
| 20260904120654 | 73 | 215 | 3.0 | 8.0 | 0.00 | 0.00 | 0.00 | 100 | 957.6 |
| 20260904120552 | 72 | 214 | 4.0 | 9.0 | 0.00 | 0.00 | 0.00 | 100 | 957.5 |
| 20260904120349 | 72 | 199 | 4.0 | 13.0 | 0.00 | 0.00 | 0.00 | 100 | 957.5 |
| 20260904120146 | 72 | 209 | 2.0 | 13.0 | 0.00 | 0.00 | 0.00 | 100 | 957.6 |
| 20260904120045 | 72 | 213 | 2.0 | 9.0 | 0.00 | 0.00 | 0.00 | 100 | 957.5 |
| 20260904115943 | 72 | 217 | 2.0 | 9.0 | 0.00 | 0.00 | 0.00 | 100 | 957.5 |
| 20260904115740 | 71 | 207 | 2.0 | 9.0 | 0.00 | 0.00 | 0.00 | 100 | 957.5 |
| 20260904115537 | 71 | 216 | 2.0 | 7.0 | 0.00 | 0.00 | 0.00 | 100 | 957.7 |
| 20260904115333 | 71 | 215 | 2.0 | 7.0 | 0.00 | 0.00 | 0.00 | 100 | 957.7 |
| 20260904114927 | 70 | 224 | 2.0 | 12.0 | 0.00 | 0.00 | 0.00 | 100 | 957.8 |
| 20260904114826 | 70 | 220 | 2.0 | 12.0 | 0.00 | 0.00 | 0.00 | 100 | 957.8 |
| 20260904114318 | 70 | 232 | 3.0 | 15.0 | 0.00 | 0.00 | 0.00 | 100 | 957.7 |
| 20260904114217 | 70 | 220 | 3.0 | 15.0 | 0.00 | 0.00 | 0.00 | 100 | 957.8 |
| 20260904114114 | 70 | 230 | 3.0 | 15.0 | 0.00 | 0.00 | 0.00 | 100 | 957.7 |
| 20260904113911 | 70 | 236 | 2.0 | 12.0 | 0.00 | 0.00 | 0.00 | 100 | 957.7 |
| 20260904113707 | 70 | 0 | 2.0 | 12.0 | 0.00 | 0.00 | 0.00 | 100 | 957.6 |
| 20260904113607 | 70 | 0 | 2.0 | 11.0 | 0.00 | 0.00 | 0.00 | 100 | 957.8 |
| 20260904113504 | 70 | 239 | 2.0 | 11.0 | 0.00 | 0.00 | 0.00 | 100 | 957.7 |
| 20260904113301 | 70 | 238 | 2.0 | 11.0 | 0.00 | 0.00 | 0.00 | 100 | 957.7 |
| 20260904113058 | 71 | 245 | 2.0 | 7.0 | 0.00 | 0.00 | 0.00 | 100 | 957.7 |
| 20260904112957 | 71 | 248 | 2.0 | 8.0 | 0.00 | 0.00 | 0.00 | 100 | 957.8 |
| 20260904112855 | 71 | 233 | 2.0 | 14.0 | 0.00 | 0.00 | 0.00 | 100 | 957.8 |
| 20260904112652 | 71 | 247 | 6.0 | 26.0 | 0.00 | 0.00 | 0.00 | 100 | 957.8 |
| 20260904112449 | 70 | 251 | 6.0 | 26.0 | 0.00 | 0.00 | 0.00 | 100 | 957.7 |
| 20260904112246 | 71 | 234 | 3.0 | 14.0 | 0.00 | 0.00 | 0.00 | 100 | 957.7 |
| 20260904112043 | 71 | 220 | 3.0 | 15.0 | 0.00 | 0.00 | 0.00 | 100 | 957.7 |
| 20260904111839 | 71 | 217 | 3.0 | 11.0 | 0.00 | 0.00 | 0.00 | 100 | 957.8 |
| 20260904111739 | 71 | 215 | 2.0 | 10.0 | 0.00 | 0.00 | 0.00 | 100 | 957.8 |
| 20260904111635 | 71 | 212 | 2.0 | 10.0 | 0.00 | 0.00 | 0.00 | 100 | 957.9 |
| 20260904111432 | 71 | 218 | 2.0 | 9.0 | 0.00 | 0.00 | 0.00 | 100 | 957.8 |
| 20260904111229 | 71 | 223 | 2.0 | 9.0 | 0.00 | 0.00 | 0.00 | 100 | 958.0 |
| 20260904111128 | 71 | 236 | 3.0 | 18.0 | 0.00 | 0.00 | 0.00 | 100 | 957.9 |
| 20260904111026 | 71 | 230 | 3.0 | 18.0 | 0.00 | 0.00 | 0.00 | 100 | 957.9 |
| 20260904110823 | 71 | 235 | 3.0 | 18.0 | 0.00 | 0.00 | 0.00 | 100 | 957.8 |
| 20260904110620 | 71 | 221 | 2.0 | 11.0 | 0.00 | 0.00 | 0.00 | 100 | 958.0 |
| 20260904110519 | 71 | 220 | 2.0 | 11.0 | 0.00 | 0.00 | 0.00 | 100 | 957.9 |
| 20260904110417 | 71 | 215 | 2.0 | 11.0 | 0.00 | 0.00 | 0.00 | 100 | 958.0 |
| 20260904110213 | 71 | 231 | 2.0 | 9.0 | 0.00 | 0.00 | 0.00 | 100 | 957.9 |
| 20260904110010 | 71 | 230 | 2.0 | 8.0 | 0.00 | 0.00 | 0.00 | 100 | 958.0 |
| 20260904105807 | 71 | 180 | 3.0 | 14.0 | 0.00 | 0.00 | 0.00 | 100 | 958.2 |
| 20260904105604 | 71 | 182 | 4.0 | 14.0 | 0.00 | 0.00 | 0.00 | 100 | 958.0 |
| 20260904105401 | 72 | 224 | 3.0 | 12.0 | 0.00 | 0.00 | 0.00 | 100 | 958.2 |
| 20260904105301 | 72 | 233 | 3.0 | 12.0 | 0.00 | 0.00 | 0.00 | 100 | 958.2 |
| 20260904105158 | 73 | 236 | 3.0 | 12.0 | 0.00 | 0.00 | 0.00 | 100 | 958.1 |
| 20260904104955 | 73 | 225 | 2.0 | 9.0 | 0.00 | 0.00 | 0.00 | 100 | 958.2 |
| 20260904104752 | 73 | 225 | 2.0 | 9.0 | 0.00 | 0.00 | 0.00 | 100 | 958.2 |
| 20260904104652 | 73 | 218 | 2.0 | 9.0 | 0.00 | 0.00 | 0.00 | 100 | 958.2 |
| 20260904104549 | 73 | 222 | 2.0 | 9.0 | 0.00 | 0.00 | 0.00 | 100 | 958.2 |
| 20260904104346 | 72 | 219 | 2.0 | 9.0 | 0.00 | 0.00 | 0.00 | 100 | 958.2 |
| 20260904104143 | 72 | 222 | 2.0 | 8.0 | 0.00 | 0.00 | 0.00 | 100 | 958.3 |
| 20260904104042 | 72 | 227 | 2.0 | 9.0 | 0.00 | 0.00 | 0.00 | 100 | 958.2 |
| 20260904103940 | 72 | 224 | 2.0 | 11.0 | 0.00 | 0.00 | 0.00 | 100 | 958.2 |
| 20260904103736 | 72 | 220 | 2.0 | 11.0 | 0.00 | 0.00 | 0.00 | 100 | 958.3 |
| 20260904103534 | 72 | 238 | 2.0 | 7.0 | 0.00 | 0.00 | 0.00 | 100 | 958.3 |
| 20260904103331 | 72 | 243 | 2.0 | 11.0 | 0.00 | 0.00 | 0.00 | 100 | 958.4 |
| 20260904103128 | 73 | 211 | 2.0 | 11.0 | 0.00 | 0.00 | 0.00 | 100 | 958.5 |
| 20260904102925 | 72 | 258 | 2.0 | 9.0 | 0.00 | 0.00 | 0.00 | 100 | 958.4 |
| 20260904102824 | 71 | 270 | 3.0 | 8.0 | 0.00 | 0.00 | 0.00 | 100 | 958.6 |
| 20260904102722 | 70 | 265 | 3.0 | 8.0 | 0.00 | 0.00 | 0.00 | 100 | 958.5 |
| 20260904102506 | 71 | 242 | 3.0 | 9.0 | 0.00 | 0.00 | 0.00 | 100 | 958.6 |
| 20260904102306 | 70 | 246 | 4.0 | 13.0 | 0.00 | 0.00 | 0.00 | 100 | 958.7 |
| 20260904102202 | 70 | 260 | 6.0 | 17.0 | 0.00 | 0.00 | 0.00 | 100 | 958.7 |
| 20260904102059 | 70 | 276 | 7.0 | 17.0 | 0.00 | 0.00 | 0.00 | 100 | 958.6 |
| 20260904101856 | 70 | 292 | 6.0 | 17.0 | 0.00 | 0.00 | 0.00 | 100 | 958.5 |
| 20260904101653 | 72 | 277 | 2.0 | 8.0 | 0.00 | 0.00 | 0.00 | 100 | 958.7 |
| 20260904101552 | 72 | 251 | 2.0 | 8.0 | 0.00 | 0.00 | 0.00 | 100 | 958.6 |
| 20260904101449 | 72 | 236 | 2.0 | 8.0 | 0.00 | 0.00 | 0.00 | 100 | 958.6 |
| 20260904101246 | 71 | 257 | 3.0 | 10.0 | 0.00 | 0.00 | 0.00 | 100 | 958.7 |
| 20260904101044 | 70 | 250 | 4.0 | 10.0 | 0.00 | 0.00 | 0.00 | 100 | 958.7 |
| 20260904100943 | 70 | 240 | 3.0 | 10.0 | 0.00 | 0.00 | 0.00 | 100 | 958.7 |
| 20260904100840 | 70 | 211 | 3.0 | 10.0 | 0.00 | 0.00 | 0.00 | 100 | 958.7 |
| 20260904100637 | 71 | 240 | 2.0 | 10.0 | 0.00 | 0.00 | 0.00 | 100 | 958.5 |
| 20260904100434 | 71 | 225 | 2.0 | 10.0 | 0.00 | 0.00 | 0.00 | 100 | 958.5 |
| 20260904100335 | 71 | 210 | 2.0 | 10.0 | 0.00 | 0.00 | 0.00 | 100 | 958.7 |
| 20260904100230 | 71 | 213 | 2.0 | 10.0 | 0.00 | 0.00 | 0.00 | 100 | 958.6 |
| 20260904100027 | 72 | 213 | 2.0 | 9.0 | 0.00 | 0.00 | 0.00 | 100 | 958.6 |
| 20260904095824 | 71 | 202 | 2.0 | 15.0 | 0.00 | 0.00 | 0.00 | 100 | 958.7 |
| 20260904095724 | 71 | 195 | 3.0 | 15.0 | 0.00 | 0.00 | 0.00 | 100 | 958.8 |
| 20260904095621 | 70 | 200 | 3.0 | 15.0 | 0.00 | 0.00 | 0.00 | 100 | 958.6 |
| 20260904095418 | 69 | 219 | 2.0 | 9.0 | 0.00 | 0.00 | 0.00 | 100 | 958.6 |
| 20260904095214 | 70 | 212 | 2.0 | 9.0 | 0.00 | 0.00 | 0.00 | 100 | 958.5 |
| 20260904095011 | 69 | 220 | 2.0 | 10.0 | 0.00 | 0.00 | 0.00 | 100 | 958.6 |
| 20260904094808 | 69 | 221 | 2.0 | 10.0 | 0.00 | 0.00 | 0.00 | 100 | 958.5 |
| 20260904094605 | 69 | 0 | 2.0 | 9.0 | 0.00 | 0.00 | 0.00 | 100 | 958.5 |
| 20260904094504 | 69 | 0 | 2.0 | 9.0 | 0.00 | 0.00 | 0.00 | 100 | 958.6 |
| 20260904094402 | 69 | 229 | 2.0 | 9.0 | 0.00 | 0.00 | 0.00 | 100 | 958.7 |
| 20260904094159 | 69 | 241 | 2.0 | 10.0 | 0.00 | 0.00 | 0.00 | 100 | 958.6 |
| 20260904093955 | 69 | 264 | 3.0 | 11.0 | 0.00 | 0.00 | 0.00 | 100 | 958.7 |
| 20260904093855 | 69 | 265 | 3.0 | 11.0 | 0.00 | 0.00 | 0.00 | 100 | 958.8 |
| 20260904093752 | 69 | 269 | 3.0 | 11.0 | 0.00 | 0.00 | 0.00 | 100 | 958.7 |
| 20260904093549 | 69 | 248 | 3.0 | 11.0 | 0.00 | 0.00 | 0.00 | 100 | 958.7 |
| 20260904093347 | 69 | 243 | 3.0 | 9.0 | 0.00 | 0.00 | 0.00 | 100 | 959.0 |
| 20260904093247 | 69 | 247 | 3.0 | 9.0 | 0.00 | 0.00 | 0.00 | 100 | 958.9 |
| 20260904093144 | 69 | 241 | 3.0 | 9.0 | 0.00 | 0.00 | 0.00 | 100 | 959.0 |
| 20260904092941 | 69 | 233 | 2.0 | 9.0 | 0.00 | 0.00 | 0.00 | 100 | 958.9 |
| 20260904092738 | 69 | 229 | 1.0 | 6.0 | 0.00 | 0.00 | 0.00 | 100 | 959.0 |
| 20260904092637 | 69 | 233 | 2.0 | 9.0 | 0.00 | 0.00 | 0.00 | 100 | 958.9 |
| 20260904092534 | 69 | 251 | 3.0 | 10.0 | 0.00 | 0.00 | 0.00 | 100 | 959.0 |
| 20260904092332 | 69 | 249 | 3.0 | 10.0 | 0.00 | 0.00 | 0.00 | 100 | 959.0 |
| 20260904092129 | 69 | 226 | 2.0 | 10.0 | 0.00 | 0.00 | 0.00 | 100 | 958.9 |
| 20260904092028 | 69 | 228 | 2.0 | 10.0 | 0.00 | 0.00 | 0.00 | 100 | 958.9 |
| 20260904091926 | 69 | 218 | 2.0 | 6.0 | 0.00 | 0.00 | 0.00 | 100 | 958.9 |
| 20260904091722 | 69 | 221 | 2.0 | 9.0 | 0.00 | 0.00 | 0.00 | 100 | 958.9 |
| 20260904091519 | 69 | 208 | 2.0 | 12.0 | 0.00 | 0.00 | 0.00 | 100 | 959.0 |
| 20260904091419 | 69 | 206 | 2.0 | 12.0 | 0.00 | 0.00 | 0.00 | 100 | 958.9 |
| 20260904091316 | 69 | 200 | 2.0 | 12.0 | 0.00 | 0.00 | 0.00 | 100 | 958.9 |
| 20260904091113 | 70 | 196 | 2.0 | 7.0 | 0.00 | 0.00 | 0.00 | 100 | 959.0 |
| 20260904090910 | 69 | 201 | 3.0 | 11.0 | 0.00 | 0.00 | 0.00 | 100 | 959.0 |
| 20260904090707 | 69 | 206 | 3.0 | 11.0 | 0.00 | 0.00 | 0.00 | 100 | 959.0 |
| 20260904090504 | 69 | 209 | 2.0 | 8.0 | 0.00 | 0.00 | 0.00 | 100 | 959.0 |
| 20260904090259 | 69 | 215 | 2.0 | 7.0 | 0.00 | 0.00 | 0.00 | 100 | 959.0 |
| 20260904090158 | 69 | 218 | 2.0 | 12.0 | 0.00 | 0.00 | 0.00 | 100 | 959.2 |
| 20260904090056 | 69 | 219 | 3.0 | 12.0 | 0.00 | 0.00 | 0.00 | 100 | 959.2 |
| 20260904085853 | 68 | 234 | 3.0 | 12.0 | 0.00 | 0.00 | 0.00 | 100 | 959.1 |
| 20260904085651 | 68 | 228 | 2.0 | 11.0 | 0.00 | 0.00 | 0.00 | 100 | 959.0 |
| 20260904085551 | 68 | 204 | 2.0 | 10.0 | 0.00 | 0.00 | 0.00 | 100 | 959.1 |
| 20260904085448 | 68 | 214 | 2.0 | 10.0 | 0.00 | 0.00 | 0.00 | 100 | 959.1 |
| 20260904085245 | 68 | 213 | 2.0 | 10.0 | 0.00 | 0.00 | 0.00 | 100 | 959.2 |
| 20260904085042 | 68 | 229 | 2.0 | 10.0 | 0.00 | 0.00 | 0.00 | 100 | 959.2 |
| 20260904084941 | 68 | 238 | 2.0 | 10.0 | 0.00 | 0.00 | 0.00 | 100 | 959.3 |
| 20260904084838 | 68 | 234 | 2.0 | 10.0 | 0.00 | 0.00 | 0.00 | 100 | 959.3 |
| 20260904084635 | 68 | 208 | 2.0 | 11.0 | 0.00 | 0.00 | 0.00 | 100 | 959.3 |
| 20260904084432 | 68 | 214 | 2.0 | 11.0 | 0.00 | 0.00 | 0.00 | 100 | 959.2 |
| 20260904084331 | 68 | 232 | 1.0 | 8.0 | 0.00 | 0.00 | 0.00 | 100 | 959.2 |
| 20260904084229 | 68 | 0 | 1.0 | 5.0 | 0.00 | 0.00 | 0.00 | 100 | 959.3 |
| 20260904084026 | 67 | 0 | 1.0 | 4.0 | 0.00 | 0.00 | 0.00 | 100 | 959.3 |
| 20260904083822 | 67 | 220 | 2.0 | 7.0 | 0.00 | 0.00 | 0.00 | 100 | 959.3 |
| 20260904083721 | 67 | 219 | 2.0 | 7.0 | 0.00 | 0.00 | 0.00 | 100 | 959.3 |
| 20260904083619 | 67 | 219 | 2.0 | 6.0 | 0.00 | 0.00 | 0.00 | 100 | 959.3 |
| 20260904083416 | 67 | 221 | 2.0 | 6.0 | 0.00 | 0.00 | 0.00 | 100 | 959.4 |
| 20260904083212 | 67 | 223 | 2.0 | 8.0 | 0.00 | 0.00 | 0.00 | 100 | 959.5 |
| 20260904083111 | 67 | 219 | 2.0 | 8.0 | 0.00 | 0.00 | 0.00 | 100 | 959.4 |
| 20260904083009 | 67 | 240 | 2.0 | 8.0 | 0.00 | 0.00 | 0.00 | 100 | 959.5 |
| 20260904082807 | 67 | 250 | 2.0 | 8.0 | 0.00 | 0.00 | 0.00 | 100 | 959.4 |
| 20260904082604 | 67 | 258 | 3.0 | 8.0 | 0.00 | 0.00 | 0.00 | 100 | 959.4 |
| 20260904082503 | 67 | 243 | 2.0 | 8.0 | 0.00 | 0.00 | 0.00 | 100 | 959.4 |
| 20260904082401 | 67 | 243 | 2.0 | 9.0 | 0.00 | 0.00 | 0.00 | 100 | 959.5 |
| 20260904082158 | 67 | 241 | 2.0 | 6.0 | 0.00 | 0.00 | 0.00 | 100 | 959.5 |
| 20260904081955 | 66 | 234 | 1.0 | 9.0 | 0.00 | 0.00 | 0.00 | 100 | 959.5 |
| 20260904081854 | 66 | 218 | 1.0 | 9.0 | 0.00 | 0.00 | 0.00 | 100 | 959.5 |
| 20260904081752 | 66 | 219 | 1.0 | 9.0 | 0.00 | 0.00 | 0.00 | 100 | 959.4 |
| 20260904081549 | 66 | 224 | 2.0 | 8.0 | 0.00 | 0.00 | 0.00 | 100 | 959.5 |
| 20260904081347 | 66 | 241 | 2.0 | 8.0 | 0.00 | 0.00 | 0.00 | 100 | 959.3 |
| 20260904081246 | 66 | 247 | 3.0 | 13.0 | 0.00 | 0.00 | 0.00 | 100 | 959.3 |
| 20260904081144 | 66 | 248 | 4.0 | 13.0 | 0.00 | 0.00 | 0.00 | 100 | 959.4 |
| 20260904080940 | 65 | 245 | 3.0 | 13.0 | 0.00 | 0.00 | 0.00 | 100 | 959.3 |
| 20260904080738 | 66 | 219 | 2.0 | 6.0 | 0.00 | 0.00 | 0.00 | 100 | 959.6 |
| 20260904080637 | 66 | 222 | 1.0 | 6.0 | 0.00 | 0.00 | 0.00 | 100 | 959.5 |
| 20260904080534 | 66 | 236 | 1.0 | 5.0 | 0.00 | 0.00 | 0.00 | 100 | 959.5 |
| 20260904080331 | 66 | 228 | 1.0 | 5.0 | 0.00 | 0.00 | 0.00 | 100 | 959.4 |
| 20260904080128 | 66 | 239 | 1.0 | 8.0 | 0.00 | 0.00 | 0.00 | 100 | 959.4 |
| 20260904080027 | 66 | 243 | 2.0 | 10.0 | 0.00 | 0.00 | 0.00 | 100 | 959.4 |
| 20260904075925 | 66 | 236 | 3.0 | 10.0 | 0.00 | 0.00 | 0.00 | 100 | 959.5 |
| 20260904075722 | 66 | 236 | 4.0 | 14.0 | 0.00 | 0.00 | 0.00 | 100 | 959.4 |
| 20260904075519 | 66 | 242 | 2.0 | 14.0 | 0.00 | 0.00 | 0.00 | 100 | 959.5 |
| 20260904075419 | 67 | 260 | 1.0 | 10.0 | 0.00 | 0.00 | 0.00 | 100 | 959.6 |
| 20260904075316 | 67 | 0 | 1.0 | 9.0 | 0.00 | 0.00 | 0.00 | 100 | 959.5 |
| 20260904075113 | 67 | 238 | 2.0 | 12.0 | 0.00 | 0.00 | 0.00 | 100 | 959.3 |
| 20260904074910 | 67 | 234 | 2.0 | 12.0 | 0.00 | 0.00 | 0.00 | 100 | 959.5 |
| 20260904074706 | 67 | 240 | 2.0 | 13.0 | 0.00 | 0.00 | 0.00 | 100 | 959.5 |
| 20260904074453 | 66 | 251 | 2.0 | 13.0 | 0.00 | 0.00 | 0.00 | 100 | 959.4 |
| 20260904074250 | 66 | 248 | 2.0 | 8.0 | 0.00 | 0.00 | 0.00 | 100 | 959.4 |
| 20260904074149 | 66 | 251 | 2.0 | 8.0 | 0.00 | 0.00 | 0.00 | 100 | 959.4 |
| 20260904074047 | 66 | 264 | 2.0 | 8.0 | 0.00 | 0.00 | 0.00 | 100 | 959.5 |
| 20260904073843 | 65 | 0 | 1.0 | 6.0 | 0.00 | 0.00 | 0.00 | 100 | 959.4 |
| 20260904073640 | 65 | 0 | 1.0 | 8.0 | 0.00 | 0.00 | 0.00 | 100 | 959.4 |
| 20260904073437 | 65 | 220 | 2.0 | 8.0 | 0.00 | 0.00 | 0.00 | 100 | 959.4 |
| 20260904073234 | 65 | 221 | 2.0 | 10.0 | 0.00 | 0.00 | 0.00 | 100 | 959.6 |
| 20260904073031 | 65 | 231 | 1.0 | 10.0 | 0.00 | 0.00 | 0.00 | 100 | 959.5 |
| 20260904072930 | 65 | 218 | 1.0 | 6.0 | 0.00 | 0.00 | 0.00 | 100 | 959.5 |
| 20260904072827 | 65 | 217 | 2.0 | 7.0 | 0.00 | 0.00 | 0.00 | 100 | 959.4 |
| 20260904072624 | 64 | 215 | 2.0 | 9.0 | 0.00 | 0.00 | 0.00 | 100 | 959.6 |
| 20260904072421 | 64 | 217 | 2.0 | 9.0 | 0.00 | 0.00 | 0.00 | 100 | 959.4 |
| 20260904072320 | 64 | 221 | 2.0 | 9.0 | 0.00 | 0.00 | 0.00 | 100 | 959.4 |
| 20260904072218 | 64 | 229 | 2.0 | 8.0 | 0.00 | 0.00 | 0.00 | 100 | 959.6 |
| 20260904072015 | 64 | 235 | 2.0 | 8.0 | 0.00 | 0.00 | 0.00 | 100 | 959.6 |
| 20260904071812 | 64 | 234 | 2.0 | 9.0 | 0.00 | 0.00 | 0.00 | 100 | 959.5 |
| 20260904071711 | 64 | 234 | 2.0 | 12.0 | 0.00 | 0.00 | 0.00 | 100 | 959.6 |
| 20260904071609 | 65 | 230 | 3.0 | 12.0 | 0.00 | 0.00 | 0.00 | 100 | 959.5 |
| 20260904071406 | 65 | 243 | 4.0 | 12.0 | 0.00 | 0.00 | 0.00 | 100 | 959.6 |
| 20260904071202 | 65 | 248 | 3.0 | 11.0 | 0.00 | 0.00 | 0.00 | 100 | 959.6 |
| 20260904070959 | 65 | 255 | 3.0 | 11.0 | 0.00 | 0.00 | 0.00 | 100 | 959.5 |
| 20260904070756 | 65 | 262 | 2.0 | 11.0 | 0.00 | 0.00 | 0.00 | 100 | 959.4 |
| 20260904070553 | 65 | 257 | 2.0 | 14.0 | 0.00 | 0.00 | 0.00 | 100 | 959.4 |
| 20260904070453 | 65 | 246 | 3.0 | 14.0 | 0.00 | 0.00 | 0.00 | 100 | 959.5 |
| 20260904070350 | 65 | 243 | 3.0 | 14.0 | 0.00 | 0.00 | 0.00 | 100 | 959.4 |
| 20260904070146 | 65 | 227 | 3.0 | 11.0 | 0.00 | 0.00 | 0.00 | 100 | 959.4 |
| 20260904065943 | 65 | 223 | 2.0 | 10.0 | 0.00 | 0.00 | 0.00 | 100 | 959.4 |
| 20260904065842 | 64 | 223 | 2.0 | 10.0 | 0.00 | 0.00 | 0.00 | 100 | 959.4 |
| 20260904065740 | 65 | 232 | 2.0 | 10.0 | 0.00 | 0.00 | 0.00 | 100 | 959.3 |
| 20260904065537 | 64 | 227 | 2.0 | 8.0 | 0.00 | 0.00 | 0.00 | 100 | 959.3 |
| 20260904065335 | 64 | 227 | 2.0 | 9.0 | 0.00 | 0.00 | 0.00 | 100 | 959.2 |
| 20260904065234 | 64 | 235 | 2.0 | 9.0 | 0.00 | 0.00 | 0.00 | 100 | 959.2 |
| 20260904065131 | 63 | 234 | 2.0 | 9.0 | 0.00 | 0.00 | 0.00 | 100 | 959.2 |
| 20260904064928 | 63 | 234 | 2.0 | 7.0 | 0.00 | 0.00 | 0.00 | 100 | 959.2 |
| 20260904064726 | 63 | 0 | 2.0 | 8.0 | 0.00 | 0.00 | 0.00 | 100 | 959.3 |
| 20260904064625 | 63 | 227 | 2.0 | 10.0 | 0.00 | 0.00 | 0.00 | 100 | 959.3 |
| 20260904064522 | 63 | 222 | 2.0 | 10.0 | 0.00 | 0.00 | 0.00 | 100 | 959.2 |
| 20260904064319 | 63 | 238 | 2.0 | 10.0 | 0.00 | 0.00 | 0.00 | 100 | 959.3 |
| 20260904064116 | 63 | 0 | 1.0 | 6.0 | 0.00 | 0.00 | 0.00 | 100 | 959.4 |
| 20260904064015 | 63 | 0 | 1.0 | 6.0 | 0.00 | 0.00 | 0.00 | 100 | 959.4 |
| 20260904063913 | 62 | 224 | 2.0 | 10.0 | 0.00 | 0.00 | 0.00 | 100 | 959.5 |
| 20260904063709 | 62 | 221 | 2.0 | 10.0 | 0.00 | 0.00 | 0.00 | 100 | 959.4 |
| 20260904063507 | 62 | 214 | 2.0 | 8.0 | 0.00 | 0.00 | 0.00 | 100 | 959.5 |
| 20260904063407 | 62 | 218 | 2.0 | 7.0 | 0.00 | 0.00 | 0.00 | 100 | 959.6 |
| 20260904063304 | 62 | 220 | 2.0 | 7.0 | 0.00 | 0.00 | 0.00 | 100 | 959.5 |
| 20260904063101 | 62 | 223 | 2.0 | 7.0 | 0.00 | 0.00 | 0.00 | 100 | 959.3 |
| 20260904062859 | 63 | 224 | 2.0 | 7.0 | 0.00 | 0.00 | 0.00 | 100 | 959.3 |
| 20260904062758 | 63 | 227 | 2.0 | 7.0 | 0.00 | 0.00 | 0.00 | 100 | 959.4 |
| 20260904062655 | 63 | 227 | 2.0 | 7.0 | 0.00 | 0.00 | 0.00 | 100 | 959.3 |
| 20260904062451 | 63 | 217 | 2.0 | 7.0 | 0.00 | 0.00 | 0.00 | 100 | 959.2 |
| 20260904062248 | 63 | 223 | 2.0 | 12.0 | 0.00 | 0.00 | 0.00 | 100 | 959.3 |
| 20260904062148 | 63 | 231 | 2.0 | 12.0 | 0.00 | 0.00 | 0.00 | 100 | 959.2 |
| 20260904062045 | 63 | 229 | 2.0 | 12.0 | 0.00 | 0.00 | 0.00 | 100 | 959.3 |
| 20260904061843 | 63 | 211 | 2.0 | 8.0 | 0.00 | 0.00 | 0.00 | 100 | 959.2 |
| 20260904061639 | 63 | 211 | 2.0 | 8.0 | 0.00 | 0.00 | 0.00 | 100 | 959.1 |
| 20260904061539 | 63 | 212 | 2.0 | 8.0 | 0.00 | 0.00 | 0.00 | 100 | 959.1 |
| 20260904061437 | 63 | 209 | 2.0 | 11.0 | 0.00 | 0.00 | 0.00 | 100 | 959.1 |
| 20260904061233 | 63 | 215 | 2.0 | 11.0 | 0.00 | 0.00 | 0.00 | 100 | 959.1 |
| 20260904061029 | 63 | 219 | 2.0 | 9.0 | 0.00 | 0.00 | 0.00 | 100 | 959.1 |
| 20260904060929 | 63 | 214 | 2.0 | 9.0 | 0.00 | 0.00 | 0.00 | 100 | 959.0 |
| 20260904060827 | 63 | 217 | 2.0 | 9.0 | 0.00 | 0.00 | 0.00 | 100 | 959.0 |
| 20260904060624 | 63 | 214 | 2.0 | 7.0 | 0.00 | 0.00 | 0.00 | 100 | 959.1 |
| 20260904060421 | 63 | 230 | 2.0 | 9.0 | 0.00 | 0.00 | 0.00 | 100 | 959.0 |
| 20260904060320 | 62 | 233 | 2.0 | 9.0 | 0.00 | 0.00 | 0.00 | 100 | 959.2 |
| 20260904060217 | 62 | 238 | 2.0 | 9.0 | 0.00 | 0.00 | 0.00 | 100 | 959.2 |
| 20260904060015 | 63 | 224 | 2.0 | 8.0 | 0.00 | 0.00 | 0.00 | 100 | 959.1 |
| 20260904055811 | 62 | 221 | 1.0 | 8.0 | 0.00 | 0.00 | 0.00 | 100 | 959.2 |
| 20260904055710 | 62 | 0 | 1.0 | 7.0 | 0.00 | 0.00 | 0.00 | 100 | 959.2 |
| 20260904055608 | 62 | 207 | 1.0 | 7.0 | 0.00 | 0.00 | 0.00 | 100 | 959.2 |
| 20260904055404 | 62 | 219 | 2.0 | 8.0 | 0.00 | 0.00 | 0.00 | 100 | 959.1 |
| 20260904055201 | 62 | 228 | 2.0 | 8.0 | 0.00 | 0.00 | 0.00 | 100 | 959.2 |
| 20260904055101 | 62 | 220 | 2.0 | 8.0 | 0.00 | 0.00 | 0.00 | 100 | 959.3 |
| 20260904054958 | 62 | 230 | 2.0 | 7.0 | 0.00 | 0.00 | 0.00 | 100 | 959.3 |
| 20260904054755 | 62 | 239 | 2.0 | 12.0 | 0.00 | 0.00 | 0.00 | 100 | 959.3 |
| 20260904054552 | 62 | 230 | 2.0 | 12.0 | 0.00 | 0.00 | 0.00 | 100 | 959.2 |
| 20260904054451 | 62 | 229 | 2.0 | 12.0 | 0.00 | 0.00 | 0.00 | 100 | 959.1 |
| 20260904054349 | 62 | 224 | 2.0 | 9.0 | 0.00 | 0.00 | 0.00 | 100 | 959.2 |
| 20260904054146 | 62 | 0 | 2.0 | 9.0 | 0.00 | 0.00 | 0.00 | 100 | 959.4 |
| 20260904053943 | 62 | 0 | 2.0 | 8.0 | 0.00 | 0.00 | 0.00 | 100 | 959.4 |
| 20260904053842 | 62 | 0 | 2.0 | 8.0 | 0.00 | 0.00 | 0.00 | 100 | 959.4 |
| 20260904053740 | 62 | 226 | 1.0 | 8.0 | 0.00 | 0.00 | 0.00 | 100 | 959.4 |
| 20260904053537 | 62 | 0 | 1.0 | 8.0 | 0.00 | 0.00 | 0.00 | 100 | 959.4 |
| 20260904053333 | 62 | 0 | 2.0 | 9.0 | 0.00 | 0.00 | 0.00 | 100 | 959.4 |
| 20260904053233 | 62 | 225 | 2.0 | 9.0 | 0.00 | 0.00 | 0.00 | 100 | 959.3 |
| 20260904053130 | 61 | 223 | 2.0 | 9.0 | 0.00 | 0.00 | 0.00 | 100 | 959.4 |
| 20260904052927 | 61 | 206 | 1.0 | 8.0 | 0.00 | 0.00 | 0.00 | 100 | 959.3 |
| 20260904052724 | 61 | 207 | 1.0 | 9.0 | 0.00 | 0.00 | 0.00 | 100 | 959.4 |
| 20260904052622 | 61 | 209 | 2.0 | 9.0 | 0.00 | 0.00 | 0.00 | 100 | 959.3 |
| 20260904052520 | 61 | 212 | 2.0 | 9.0 | 0.00 | 0.00 | 0.00 | 100 | 959.3 |
| 20260904052317 | 61 | 207 | 2.0 | 6.0 | 0.00 | 0.00 | 0.00 | 100 | 959.4 |
| 20260904052114 | 61 | 205 | 2.0 | 7.0 | 0.00 | 0.00 | 0.00 | 100 | 959.3 |
| 20260904052013 | 61 | 213 | 2.0 | 7.0 | 0.00 | 0.00 | 0.00 | 100 | 959.2 |
| 20260904051911 | 61 | 216 | 2.0 | 6.0 | 0.00 | 0.00 | 0.00 | 100 | 959.3 |
| 20260904051708 | 61 | 230 | 2.0 | 7.0 | 0.00 | 0.00 | 0.00 | 100 | 959.4 |
| 20260904051505 | 61 | 228 | 1.0 | 7.0 | 0.00 | 0.00 | 0.00 | 100 | 959.3 |
| 20260904051404 | 61 | 215 | 1.0 | 7.0 | 0.00 | 0.00 | 0.00 | 100 | 959.3 |
| 20260904051302 | 61 | 212 | 1.0 | 7.0 | 0.00 | 0.00 | 0.00 | 100 | 959.3 |
| 20260904051059 | 61 | 222 | 2.0 | 11.0 | 0.00 | 0.00 | 0.00 | 100 | 959.1 |
| 20260904050857 | 61 | 228 | 2.0 | 11.0 | 0.00 | 0.00 | 0.00 | 100 | 959.2 |
| 20260904050756 | 61 | 219 | 1.0 | 11.0 | 0.00 | 0.00 | 0.00 | 100 | 959.2 |
| 20260904050641 | 61 | 0 | 1.0 | 7.0 | 0.00 | 0.00 | 0.00 | 100 | 959.2 |
| 20260904050437 | 61 | 0 | 1.0 | 7.0 | 0.00 | 0.00 | 0.00 | 100 | 959.3 |
| 20260904050233 | 61 | 211 | 1.0 | 7.0 | 0.00 | 0.00 | 0.00 | 100 | 959.2 |
| 20260904050133 | 61 | 219 | 1.0 | 6.0 | 0.00 | 0.00 | 0.00 | 100 | 959.2 |
| 20260904050031 | 61 | 215 | 1.0 | 6.0 | 0.00 | 0.00 | 0.00 | 100 | 959.2 |
| 20260904045827 | 61 | 216 | 2.0 | 7.0 | 0.00 | 0.00 | 0.00 | 100 | 959.2 |
| 20260904045624 | 61 | 212 | 2.0 | 8.0 | 0.00 | 0.00 | 0.00 | 100 | 959.2 |
| 20260904045524 | 61 | 211 | 2.0 | 8.0 | 0.00 | 0.00 | 0.00 | 100 | 959.3 |
| 20260904045422 | 61 | 205 | 2.0 | 8.0 | 0.00 | 0.00 | 0.00 | 100 | 959.2 |
| 20260904045219 | 61 | 207 | 2.0 | 8.0 | 0.00 | 0.00 | 0.00 | 100 | 959.2 |
| 20260904045016 | 60 | 214 | 2.0 | 9.0 | 0.00 | 0.00 | 0.00 | 100 | 959.2 |
| 20260904044915 | 60 | 213 | 2.0 | 9.0 | 0.00 | 0.00 | 0.00 | 100 | 959.2 |
| 20260904044813 | 60 | 214 | 2.0 | 9.0 | 0.00 | 0.00 | 0.00 | 100 | 959.2 |
| 20260904044610 | 60 | 214 | 1.0 | 6.0 | 0.00 | 0.00 | 0.00 | 100 | 959.1 |
| 20260904044406 | 60 | 214 | 1.0 | 6.0 | 0.00 | 0.00 | 0.00 | 100 | 959.1 |
| 20260904044306 | 60 | 218 | 1.0 | 6.0 | 0.00 | 0.00 | 0.00 | 100 | 959.1 |
| 20260904044203 | 60 | 220 | 2.0 | 7.0 | 0.00 | 0.00 | 0.00 | 100 | 959.1 |
| 20260904044000 | 60 | 213 | 2.0 | 7.0 | 0.00 | 0.00 | 0.00 | 100 | 959.1 |
| 20260904043758 | 60 | 219 | 2.0 | 5.0 | 0.00 | 0.00 | 0.00 | 100 | 959.0 |
| 20260904043657 | 60 | 228 | 1.0 | 7.0 | 0.00 | 0.00 | 0.00 | 100 | 959.0 |
| 20260904043554 | 60 | 232 | 1.0 | 7.0 | 0.00 | 0.00 | 0.00 | 100 | 959.0 |
| 20260904043351 | 60 | 216 | 1.0 | 8.0 | 0.00 | 0.00 | 0.00 | 100 | 959.0 |
| 20260904043148 | 60 | 217 | 2.0 | 9.0 | 0.00 | 0.00 | 0.00 | 100 | 959.1 |
| 20260904042945 | 61 | 219 | 2.0 | 9.0 | 0.00 | 0.00 | 0.00 | 100 | 959.0 |
| 20260904042742 | 61 | 225 | 3.0 | 14.0 | 0.00 | 0.00 | 0.00 | 100 | 959.0 |
| 20260904042538 | 61 | 247 | 4.0 | 14.0 | 0.00 | 0.00 | 0.00 | 100 | 959.1 |
| 20260904042437 | 61 | 256 | 4.0 | 14.0 | 0.00 | 0.00 | 0.00 | 100 | 959.0 |
| 20260904042335 | 61 | 258 | 5.0 | 10.0 | 0.00 | 0.00 | 0.00 | 100 | 959.0 |
| 20260904042131 | 61 | 255 | 5.0 | 14.0 | 0.00 | 0.00 | 0.00 | 100 | 959.2 |
| 20260904041928 | 61 | 255 | 6.0 | 14.0 | 0.00 | 0.00 | 0.00 | 100 | 959.2 |
| 20260904041828 | 61 | 251 | 6.0 | 16.0 | 0.00 | 0.00 | 0.00 | 100 | 959.2 |
| 20260904041725 | 61 | 253 | 5.0 | 16.0 | 0.00 | 0.00 | 0.00 | 100 | 959.2 |
| 20260904041522 | 61 | 251 | 4.0 | 16.0 | 0.00 | 0.00 | 0.00 | 100 | 959.3 |
| 20260904041318 | 61 | 254 | 4.0 | 14.0 | 0.00 | 0.00 | 0.00 | 100 | 959.3 |
| 20260904041116 | 61 | 259 | 6.0 | 16.0 | 0.00 | 0.00 | 0.00 | 100 | 959.3 |
| 20260904040913 | 61 | 258 | 7.0 | 16.0 | 0.00 | 0.00 | 0.00 | 100 | 959.2 |
| 20260904040709 | 61 | 253 | 7.0 | 14.0 | 0.00 | 0.00 | 0.00 | 100 | 959.4 |
| 20260904040609 | 61 | 254 | 6.0 | 12.0 | 0.00 | 0.00 | 0.00 | 100 | 959.3 |
| 20260904040507 | 61 | 253 | 5.0 | 12.0 | 0.00 | 0.00 | 0.00 | 100 | 959.3 |
| 20260904040304 | 61 | 255 | 4.0 | 11.0 | 0.00 | 0.00 | 0.00 | 100 | 959.2 |
| 20260904040101 | 61 | 253 | 3.0 | 10.0 | 0.00 | 0.00 | 0.00 | 100 | 959.2 |
| 20260904040000 | 61 | 252 | 4.0 | 11.0 | 0.00 | 0.00 | 0.00 | 100 | 959.2 |
| 20260904035857 | 61 | 250 | 4.0 | 11.0 | 0.00 | 0.00 | 0.00 | 100 | 959.1 |
| 20260904035654 | 61 | 251 | 5.0 | 11.0 | 0.00 | 0.00 | 0.00 | 100 | 959.0 |
| 20260904035451 | 61 | 251 | 4.0 | 10.0 | 0.00 | 0.00 | 0.00 | 100 | 959.0 |
| 20260904035350 | 61 | 252 | 4.0 | 10.0 | 0.00 | 0.00 | 0.00 | 100 | 959.1 |
| 20260904035248 | 61 | 256 | 4.0 | 12.0 | 0.00 | 0.00 | 0.00 | 100 | 959.1 |
| 20260904035044 | 62 | 252 | 4.0 | 12.0 | 0.00 | 0.00 | 0.00 | 100 | 959.2 |
| 20260904034843 | 62 | 253 | 5.0 | 11.0 | 0.00 | 0.00 | 0.00 | 100 | 959.2 |
| 20260904034742 | 61 | 258 | 5.0 | 11.0 | 0.00 | 0.00 | 0.00 | 100 | 959.2 |
| 20260904034639 | 62 | 258 | 4.0 | 13.0 | 0.00 | 0.00 | 0.00 | 100 | 959.2 |
| 20260904034436 | 62 | 263 | 5.0 | 16.0 | 0.00 | 0.00 | 0.00 | 100 | 959.2 |
| 20260904034233 | 62 | 265 | 7.0 | 16.0 | 0.00 | 0.00 | 0.00 | 100 | 959.2 |
| 20260904034132 | 62 | 263 | 7.0 | 16.0 | 0.00 | 0.00 | 0.00 | 100 | 959.2 |
| 20260904034030 | 62 | 258 | 7.0 | 16.0 | 0.00 | 0.00 | 0.00 | 100 | 959.2 |
| 20260904033826 | 62 | 252 | 5.0 | 16.0 | 0.00 | 0.00 | 0.00 | 100 | 959.2 |
| 20260904033623 | 62 | 251 | 6.0 | 16.0 | 0.00 | 0.00 | 0.00 | 100 | 959.1 |
| 20260904033522 | 62 | 256 | 6.0 | 16.0 | 0.00 | 0.00 | 0.00 | 100 | 959.1 |
| 20260904033421 | 62 | 256 | 6.0 | 14.0 | 0.00 | 0.00 | 0.00 | 100 | 959.2 |
| 20260904033217 | 62 | 254 | 7.0 | 21.0 | 0.00 | 0.00 | 0.00 | 100 | 959.2 |
| 20260904033015 | 62 | 248 | 5.0 | 21.0 | 0.00 | 0.00 | 0.00 | 100 | 959.0 |
| 20260904032914 | 62 | 241 | 5.0 | 21.0 | 0.00 | 0.00 | 0.00 | 100 | 959.1 |
| 20260904032811 | 62 | 243 | 4.0 | 13.0 | 0.00 | 0.00 | 0.00 | 100 | 959.0 |
| 20260904032608 | 61 | 249 | 4.0 | 13.0 | 0.00 | 0.00 | 0.00 | 100 | 959.0 |
| 20260904032404 | 62 | 257 | 4.0 | 13.0 | 0.00 | 0.00 | 0.00 | 100 | 959.0 |
| 20260904032305 | 62 | 256 | 4.0 | 12.0 | 0.00 | 0.00 | 0.00 | 100 | 959.0 |
| 20260904032201 | 62 | 256 | 4.0 | 12.0 | 0.00 | 0.00 | 0.00 | 100 | 959.1 |
| 20260904031958 | 62 | 259 | 5.0 | 16.0 | 0.00 | 0.00 | 0.00 | 100 | 959.0 |
| 20260904031755 | 62 | 262 | 7.0 | 16.0 | 0.00 | 0.00 | 0.00 | 100 | 959.1 |
| 20260904031551 | 62 | 260 | 6.0 | 15.0 | 0.00 | 0.00 | 0.00 | 100 | 959.1 |
| 20260904031348 | 61 | 259 | 5.0 | 11.0 | 0.00 | 0.00 | 0.00 | 100 | 959.1 |
| 20260904031144 | 61 | 260 | 5.0 | 11.0 | 0.00 | 0.00 | 0.00 | 100 | 959.2 |
| 20260904031043 | 61 | 257 | 2.0 | 11.0 | 0.00 | 0.00 | 0.00 | 100 | 959.2 |
| 20260904030941 | 61 | 257 | 2.0 | 9.0 | 0.00 | 0.00 | 0.00 | 100 | 959.2 |
| 20260904030738 | 61 | 217 | 1.0 | 6.0 | 0.00 | 0.00 | 0.00 | 100 | 959.2 |
| 20260904030535 | 61 | 248 | 3.0 | 8.0 | 0.00 | 0.00 | 0.00 | 100 | 959.1 |
| 20260904030434 | 61 | 253 | 3.0 | 8.0 | 0.00 | 0.00 | 0.00 | 100 | 959.1 |
| 20260904030331 | 61 | 250 | 3.0 | 8.0 | 0.00 | 0.00 | 0.00 | 100 | 959.1 |
| 20260904030128 | 61 | 221 | 2.0 | 7.0 | 0.00 | 0.00 | 0.00 | 100 | 959.1 |
| 20260904025925 | 61 | 257 | 5.0 | 15.0 | 0.00 | 0.00 | 0.00 | 100 | 959.1 |
| 20260904025721 | 62 | 267 | 6.0 | 15.0 | 0.00 | 0.00 | 0.00 | 100 | 959.3 |
| 20260904025518 | 62 | 264 | 5.0 | 10.0 | 0.00 | 0.00 | 0.00 | 100 | 959.2 |
| 20260904025316 | 62 | 264 | 4.0 | 10.0 | 0.00 | 0.00 | 0.00 | 100 | 959.2 |
| 20260904025215 | 61 | 269 | 4.0 | 10.0 | 0.00 | 0.00 | 0.00 | 100 | 959.2 |
| 20260904025112 | 61 | 265 | 4.0 | 10.0 | 0.00 | 0.00 | 0.00 | 100 | 959.2 |
| 20260904024908 | 61 | 263 | 4.0 | 11.0 | 0.00 | 0.00 | 0.00 | 100 | 959.1 |
| 20260904024705 | 61 | 260 | 3.0 | 10.0 | 0.00 | 0.00 | 0.00 | 100 | 959.2 |
| 20260904024604 | 60 | 250 | 2.0 | 9.0 | 0.00 | 0.00 | 0.00 | 100 | 959.1 |
| 20260904024502 | 61 | 243 | 1.0 | 7.0 | 0.00 | 0.00 | 0.00 | 100 | 959.2 |
| 20260904024259 | 61 | 247 | 2.0 | 8.0 | 0.00 | 0.00 | 0.00 | 100 | 959.3 |
| 20260904024055 | 61 | 254 | 4.0 | 11.0 | 0.00 | 0.00 | 0.00 | 100 | 959.2 |
| 20260904023954 | 61 | 252 | 4.0 | 11.0 | 0.00 | 0.00 | 0.00 | 100 | 959.3 |
| 20260904023852 | 60 | 252 | 3.0 | 11.0 | 0.00 | 0.00 | 0.00 | 100 | 959.2 |
| 20260904023649 | 60 | 244 | 3.0 | 9.0 | 0.00 | 0.00 | 0.00 | 100 | 959.2 |
| 20260904023445 | 60 | 239 | 3.0 | 9.0 | 0.00 | 0.00 | 0.00 | 100 | 959.1 |
| 20260904023345 | 60 | 233 | 2.0 | 5.0 | 0.00 | 0.00 | 0.00 | 100 | 959.2 |
| 20260904023243 | 60 | 237 | 2.0 | 13.0 | 0.00 | 0.00 | 0.00 | 100 | 959.0 |
| 20260904023040 | 60 | 234 | 2.0 | 13.0 | 0.00 | 0.00 | 0.00 | 100 | 959.2 |
| 20260904022836 | 60 | 249 | 2.0 | 7.0 | 0.00 | 0.00 | 0.00 | 100 | 959.1 |
| 20260904022722 | 60 | 256 | 1.0 | 7.0 | 0.00 | 0.00 | 0.00 | 100 | 959.0 |
| 20260904022620 | 59 | 0 | 1.0 | 4.0 | 0.00 | 0.00 | 0.00 | 100 | 959.0 |
| 20260904022417 | 59 | 0 | 1.0 | 6.0 | 0.00 | 0.00 | 0.00 | 100 | 959.1 |
| 20260904022214 | 59 | 0 | 1.0 | 6.0 | 0.00 | 0.00 | 0.00 | 100 | 959.1 |
| 20260904022010 | 59 | 0 | 1.0 | 4.0 | 0.00 | 0.00 | 0.00 | 100 | 959.0 |
| 20260904021807 | 59 | 0 | 0.0 | 4.0 | 0.00 | 0.00 | 0.00 | 100 | 959.1 |
| 20260904021604 | 59 | 0 | 1.0 | 4.0 | 0.00 | 0.00 | 0.00 | 100 | 958.9 |
| 20260904021503 | 60 | 0 | 1.0 | 4.0 | 0.00 | 0.00 | 0.00 | 100 | 958.9 |
| 20260904021400 | 60 | 0 | 1.0 | 4.0 | 0.00 | 0.00 | 0.00 | 100 | 959.0 |
| 20260904021157 | 60 | 236 | 2.0 | 10.0 | 0.00 | 0.00 | 0.00 | 100 | 959.0 |
| 20260904020954 | 60 | 237 | 2.0 | 10.0 | 0.00 | 0.00 | 0.00 | 100 | 958.9 |
| 20260904020853 | 60 | 235 | 2.0 | 10.0 | 0.00 | 0.00 | 0.00 | 100 | 958.9 |
| 20260904020751 | 60 | 231 | 2.0 | 8.0 | 0.00 | 0.00 | 0.00 | 100 | 958.8 |
| 20260904020547 | 60 | 225 | 2.0 | 8.0 | 0.00 | 0.00 | 0.00 | 100 | 959.0 |
| 20260904020344 | 60 | 223 | 2.0 | 8.0 | 0.00 | 0.00 | 0.00 | 100 | 959.0 |
| 20260904020243 | 60 | 227 | 2.0 | 8.0 | 0.00 | 0.00 | 0.00 | 100 | 959.0 |
| 20260904020141 | 60 | 230 | 2.0 | 9.0 | 0.00 | 0.00 | 0.00 | 100 | 959.0 |
| 20260904015938 | 61 | 233 | 2.0 | 9.0 | 0.00 | 0.00 | 0.00 | 100 | 959.0 |
| 20260904015735 | 61 | 227 | 2.0 | 9.0 | 0.00 | 0.00 | 0.00 | 100 | 959.0 |
| 20260904015634 | 61 | 234 | 2.0 | 9.0 | 0.00 | 0.00 | 0.00 | 100 | 959.0 |
| 20260904015531 | 61 | 233 | 2.0 | 9.0 | 0.00 | 0.00 | 0.00 | 100 | 959.0 |
| 20260904015328 | 61 | 230 | 2.0 | 10.0 | 0.00 | 0.00 | 0.00 | 100 | 959.0 |
| 20260904015125 | 61 | 220 | 2.0 | 10.0 | 0.00 | 0.00 | 0.00 | 100 | 959.0 |
| 20260904015024 | 61 | 219 | 2.0 | 10.0 | 0.00 | 0.00 | 0.00 | 100 | 959.1 |
| 20260904014922 | 61 | 215 | 2.0 | 10.0 | 0.00 | 0.00 | 0.00 | 100 | 959.1 |
| 20260904014719 | 61 | 221 | 2.0 | 10.0 | 0.00 | 0.00 | 0.00 | 100 | 959.1 |
| 20260904014516 | 62 | 237 | 3.0 | 12.0 | 0.00 | 0.00 | 0.00 | 100 | 959.0 |
| 20260904014414 | 62 | 244 | 4.0 | 12.0 | 0.00 | 0.00 | 0.00 | 100 | 959.1 |
| 20260904014313 | 62 | 246 | 5.0 | 15.0 | 0.00 | 0.00 | 0.00 | 100 | 959.1 |
| 20260904014109 | 62 | 247 | 5.0 | 15.0 | 0.00 | 0.00 | 0.00 | 100 | 959.2 |
| 20260904013906 | 61 | 241 | 3.0 | 12.0 | 0.00 | 0.00 | 0.00 | 100 | 959.2 |
| 20260904013806 | 61 | 241 | 3.0 | 10.0 | 0.00 | 0.00 | 0.00 | 100 | 959.1 |
| 20260904013703 | 61 | 234 | 3.0 | 10.0 | 0.00 | 0.00 | 0.00 | 100 | 959.1 |
| 20260904013459 | 60 | 259 | 3.0 | 14.0 | 0.00 | 0.00 | 0.00 | 100 | 959.1 |
| 20260904013257 | 59 | 283 | 4.0 | 11.0 | 0.00 | 0.00 | 0.00 | 100 | 959.1 |
| 20260904013156 | 59 | 301 | 3.0 | 11.0 | 0.00 | 0.00 | 0.00 | 100 | 959.1 |
| 20260904013054 | 58 | 304 | 3.0 | 11.0 | 0.00 | 0.00 | 0.00 | 100 | 959.1 |
| 20260904012851 | 58 | 326 | 2.0 | 6.0 | 0.00 | 0.00 | 0.00 | 100 | 959.1 |
| 20260904012647 | 59 | 299 | 4.0 | 8.0 | 0.00 | 0.00 | 0.00 | 100 | 959.1 |
| 20260904012546 | 61 | 291 | 5.0 | 9.0 | 0.00 | 0.00 | 0.00 | 100 | 959.1 |
| 20260904012444 | 62 | 274 | 5.0 | 9.0 | 0.00 | 0.00 | 0.00 | 100 | 959.1 |
| 20260904012241 | 62 | 267 | 6.0 | 11.0 | 0.00 | 0.00 | 0.00 | 100 | 959.0 |
| 20260904012039 | 62 | 260 | 5.0 | 12.0 | 0.00 | 0.00 | 0.00 | 100 | 959.1 |
| 20260904011938 | 62 | 255 | 5.0 | 12.0 | 0.00 | 0.00 | 0.00 | 100 | 959.1 |
| 20260904011836 | 62 | 253 | 5.0 | 12.0 | 0.00 | 0.00 | 0.00 | 100 | 958.9 |
| 20260904011632 | 62 | 236 | 3.0 | 13.0 | 0.00 | 0.00 | 0.00 | 100 | 959.0 |
| 20260904011429 | 62 | 233 | 2.0 | 13.0 | 0.00 | 0.00 | 0.00 | 100 | 959.0 |
| 20260904011328 | 62 | 239 | 3.0 | 16.0 | 0.00 | 0.00 | 0.00 | 100 | 959.0 |
| 20260904011225 | 62 | 240 | 3.0 | 16.0 | 0.00 | 0.00 | 0.00 | 100 | 959.0 |
| 20260904011022 | 62 | 226 | 2.0 | 16.0 | 0.00 | 0.00 | 0.00 | 100 | 958.9 |
| 20260904010819 | 62 | 201 | 2.0 | 8.0 | 0.00 | 0.00 | 0.00 | 100 | 958.9 |
| 20260904010718 | 62 | 213 | 2.0 | 9.0 | 0.00 | 0.00 | 0.00 | 100 | 958.9 |
| 20260904010616 | 62 | 216 | 3.0 | 9.0 | 0.00 | 0.00 | 0.00 | 100 | 959.0 |
| 20260904010413 | 62 | 222 | 3.0 | 10.0 | 0.00 | 0.00 | 0.00 | 100 | 959.1 |
| 20260904010211 | 61 | 222 | 2.0 | 10.0 | 0.00 | 0.00 | 0.00 | 100 | 959.1 |
| 20260904010110 | 61 | 231 | 1.0 | 9.0 | 0.00 | 0.00 | 0.00 | 100 | 959.2 |
| 20260904010007 | 61 | 0 | 1.0 | 6.0 | 0.00 | 0.00 | 0.00 | 100 | 959.2 |
| 20260904005804 | 61 | 257 | 1.0 | 6.0 | 0.00 | 0.00 | 0.00 | 100 | 959.1 |
| 20260904005601 | 61 | 0 | 1.0 | 5.0 | 0.00 | 0.00 | 0.00 | 100 | 959.2 |
| 20260904005500 | 61 | 235 | 1.0 | 5.0 | 0.00 | 0.00 | 0.00 | 100 | 959.1 |
| 20260904005357 | 61 | 0 | 1.0 | 5.0 | 0.00 | 0.00 | 0.00 | 100 | 959.2 |
| 20260904005154 | 62 | 237 | 1.0 | 5.0 | 0.00 | 0.00 | 0.00 | 100 | 959.2 |
| 20260904004951 | 62 | 240 | 2.0 | 12.0 | 0.00 | 0.00 | 0.00 | 100 | 959.3 |
| 20260904004748 | 62 | 235 | 3.0 | 12.0 | 0.00 | 0.00 | 0.00 | 100 | 959.1 |
| 20260904004545 | 62 | 225 | 2.0 | 9.0 | 0.00 | 0.00 | 0.00 | 100 | 959.1 |
| 20260904004342 | 62 | 239 | 2.0 | 9.0 | 0.00 | 0.00 | 0.00 | 100 | 959.2 |
| 20260904004242 | 62 | 239 | 2.0 | 9.0 | 0.00 | 0.00 | 0.00 | 100 | 959.3 |
| 20260904004139 | 62 | 238 | 2.0 | 9.0 | 0.00 | 0.00 | 0.00 | 100 | 959.3 |
| 20260904003936 | 62 | 243 | 2.0 | 9.0 | 0.00 | 0.00 | 0.00 | 100 | 959.3 |
| 20260904003733 | 62 | 252 | 2.0 | 7.0 | 0.00 | 0.00 | 0.00 | 100 | 959.3 |
| 20260904003632 | 62 | 251 | 2.0 | 5.0 | 0.00 | 0.00 | 0.00 | 100 | 959.3 |
| 20260904003529 | 62 | 250 | 2.0 | 5.0 | 0.00 | 0.00 | 0.00 | 100 | 959.4 |
| 20260904003326 | 62 | 247 | 2.0 | 8.0 | 0.00 | 0.00 | 0.00 | 100 | 959.4 |
| 20260904003124 | 62 | 245 | 2.0 | 8.0 | 0.00 | 0.00 | 0.00 | 100 | 959.4 |
| 20260904003023 | 62 | 241 | 2.0 | 8.0 | 0.00 | 0.00 | 0.00 | 100 | 959.4 |
| 20260904002921 | 62 | 225 | 2.0 | 7.0 | 0.00 | 0.00 | 0.00 | 100 | 959.4 |
| 20260904002718 | 62 | 221 | 1.0 | 7.0 | 0.00 | 0.00 | 0.00 | 100 | 959.4 |
| 20260904002515 | 62 | 230 | 1.0 | 7.0 | 0.00 | 0.00 | 0.00 | 100 | 959.4 |
| 20260904002414 | 62 | 230 | 1.0 | 7.0 | 0.00 | 0.00 | 0.00 | 100 | 959.4 |
| 20260904002312 | 62 | 0 | 1.0 | 5.0 | 0.00 | 0.00 | 0.00 | 100 | 959.3 |
| 20260904002108 | 62 | 0 | 1.0 | 5.0 | 0.00 | 0.00 | 0.00 | 100 | 959.2 |
| 20260904001905 | 62 | 219 | 1.0 | 8.0 | 0.00 | 0.00 | 0.00 | 100 | 959.3 |
| 20260904001805 | 62 | 222 | 1.0 | 8.0 | 0.00 | 0.00 | 0.00 | 100 | 959.3 |
| 20260904001702 | 62 | 221 | 1.0 | 8.0 | 0.00 | 0.00 | 0.00 | 100 | 959.4 |
| 20260904001459 | 63 | 0 | 1.0 | 5.0 | 0.00 | 0.00 | 0.00 | 100 | 959.4 |
| 20260904001256 | 63 | 220 | 1.0 | 5.0 | 0.00 | 0.00 | 0.00 | 100 | 959.4 |
| 20260904001155 | 63 | 227 | 1.0 | 5.0 | 0.00 | 0.00 | 0.00 | 100 | 959.4 |
| 20260904001053 | 63 | 236 | 1.0 | 5.0 | 0.00 | 0.00 | 0.00 | 100 | 959.4 |
| 20260904000851 | 63 | 243 | 1.0 | 5.0 | 0.00 | 0.00 | 0.00 | 100 | 959.5 |
| 20260904000647 | 63 | 237 | 1.0 | 5.0 | 0.00 | 0.00 | 0.00 | 100 | 959.5 |
| 20260904000547 | 63 | 235 | 2.0 | 6.0 | 0.00 | 0.00 | 0.00 | 100 | 959.5 |
| 20260904000444 | 63 | 238 | 2.0 | 6.0 | 0.00 | 0.00 | 0.00 | 100 | 959.5 |
| 20260904000241 | 63 | 241 | 2.0 | 11.0 | 0.00 | 0.00 | 0.00 | 100 | 959.5 |
| 20260904000038 | 64 | 248 | 3.0 | 12.0 | 0.00 | 0.00 | 0.00 | 100 | 959.5 |
| 20260903235937 | 64 | 245 | 3.0 | 12.0 | 0.00 | 0.00 | 0.00 | 100 | 959.5 |
| 20260903235741 | 64 | 249 | 3.0 | 9.0 | 0.00 | 0.00 | 0.00 | 100 | 959.4 |
| 20260903235537 | 64 | 248 | 4.0 | 9.0 | 0.00 | 0.00 | 0.00 | 100 | 959.5 |
| 20260903235438 | 64 | 248 | 4.0 | 10.0 | 0.00 | 0.00 | 0.00 | 100 | 959.4 |
| 20260903235334 | 64 | 247 | 4.0 | 10.0 | 0.00 | 0.00 | 0.00 | 100 | 959.5 |
| 20260903235131 | 64 | 241 | 2.0 | 10.0 | 0.00 | 0.00 | 0.00 | 100 | 959.4 |
| 20260903234927 | 64 | 218 | 2.0 | 9.0 | 0.00 | 0.00 | 0.00 | 100 | 959.6 |
| 20260903234827 | 64 | 214 | 2.0 | 9.0 | 0.00 | 0.00 | 0.00 | 100 | 959.5 |
| 20260903234724 | 64 | 210 | 2.0 | 9.0 | 0.00 | 0.00 | 0.00 | 100 | 959.5 |
| 20260903234521 | 64 | 235 | 3.0 | 16.0 | 0.00 | 0.00 | 0.00 | 100 | 959.5 |
| 20260903234317 | 64 | 237 | 3.0 | 16.0 | 0.00 | 0.00 | 0.00 | 100 | 959.5 |
| 20260903234203 | 64 | 228 | 3.0 | 11.0 | 0.00 | 0.00 | 0.00 | 100 | 959.6 |
| 20260903234100 | 64 | 234 | 3.0 | 11.0 | 0.00 | 0.00 | 0.00 | 100 | 959.6 |
| 20260903233857 | 64 | 237 | 4.0 | 11.0 | 0.00 | 0.00 | 0.00 | 100 | 959.6 |
| 20260903233654 | 64 | 238 | 4.0 | 14.0 | 0.00 | 0.00 | 0.00 | 100 | 959.6 |
| 20260903233553 | 64 | 233 | 3.0 | 14.0 | 0.00 | 0.00 | 0.00 | 100 | 959.7 |
| 20260903233451 | 64 | 229 | 3.0 | 14.0 | 0.00 | 0.00 | 0.00 | 100 | 959.7 |
| 20260903233247 | 64 | 253 | 5.0 | 15.0 | 0.00 | 0.00 | 0.00 | 100 | 959.7 |
| 20260903233045 | 64 | 256 | 6.0 | 15.0 | 0.00 | 0.00 | 0.00 | 100 | 959.8 |
| 20260903232944 | 65 | 256 | 5.0 | 15.0 | 0.00 | 0.00 | 0.00 | 100 | 959.7 |
| 20260903232842 | 64 | 255 | 5.0 | 13.0 | 0.00 | 0.00 | 0.00 | 100 | 959.7 |
| 20260903232639 | 65 | 268 | 7.0 | 18.0 | 0.00 | 0.00 | 0.00 | 100 | 959.9 |
| 20260903232436 | 65 | 264 | 6.0 | 18.0 | 0.00 | 0.00 | 0.00 | 100 | 959.7 |
| 20260903232335 | 65 | 259 | 5.0 | 13.0 | 0.00 | 0.00 | 0.00 | 100 | 959.9 |
| 20260903232233 | 65 | 262 | 6.0 | 13.0 | 0.00 | 0.00 | 0.00 | 100 | 959.9 |
| 20260903232029 | 65 | 282 | 8.0 | 18.0 | 0.00 | 0.00 | 0.00 | 100 | 959.9 |
| 20260903231826 | 65 | 282 | 8.0 | 18.0 | 0.00 | 0.00 | 0.00 | 100 | 959.9 |
| 20260903231725 | 65 | 278 | 7.0 | 18.0 | 0.00 | 0.00 | 0.00 | 100 | 959.9 |
| 20260903231623 | 65 | 281 | 7.0 | 14.0 | 0.00 | 0.00 | 0.00 | 100 | 959.9 |
| 20260903231419 | 65 | 284 | 10.0 | 18.0 | 0.00 | 0.00 | 0.00 | 100 | 960.0 |
| 20260903231217 | 65 | 293 | 13.0 | 27.0 | 0.00 | 0.00 | 0.00 | 100 | 959.9 |
| 20260903231116 | 65 | 292 | 14.0 | 27.0 | 0.00 | 0.00 | 0.00 | 100 | 959.9 |
| 20260903231014 | 65 | 290 | 14.0 | 27.0 | 0.00 | 0.00 | 0.00 | 100 | 960.0 |
| 20260903230811 | 65 | 285 | 9.0 | 18.0 | 0.00 | 0.00 | 0.00 | 100 | 960.0 |
| 20260903230607 | 64 | 286 | 7.0 | 12.0 | 0.00 | 0.00 | 0.00 | 100 | 960.1 |
| 20260903230507 | 65 | 294 | 7.0 | 13.0 | 0.00 | 0.00 | 0.00 | 100 | 960.1 |
| 20260903230404 | 64 | 291 | 7.0 | 13.0 | 0.00 | 0.00 | 0.00 | 100 | 959.9 |
| 20260903230201 | 65 | 287 | 10.0 | 23.0 | 0.00 | 0.00 | 0.00 | 100 | 959.9 |
| 20260903225958 | 66 | 286 | 13.0 | 23.0 | 0.00 | 0.00 | 0.00 | 100 | 959.6 |
| 20260903225858 | 66 | 287 | 14.0 | 18.0 | 0.00 | 0.00 | 0.00 | 100 | 959.6 |
| 20260903225756 | 66 | 286 | 12.0 | 18.0 | 0.00 | 0.00 | 0.00 | 100 | 959.8 |
| 20260903225553 | 66 | 284 | 12.0 | 23.0 | 0.00 | 0.00 | 0.00 | 100 | 959.8 |
| 20260903225350 | 66 | 283 | 10.0 | 23.0 | 0.00 | 0.00 | 0.00 | 100 | 959.8 |
| 20260903225249 | 66 | 282 | 11.0 | 20.0 | 0.00 | 0.00 | 0.00 | 100 | 959.8 |
| 20260903225146 | 66 | 274 | 10.0 | 20.0 | 0.00 | 0.00 | 0.00 | 100 | 959.7 |
| 20260903224943 | 66 | 270 | 10.0 | 20.0 | 0.00 | 0.00 | 0.00 | 100 | 959.9 |
| 20260903224741 | 66 | 282 | 11.0 | 19.0 | 0.00 | 0.00 | 0.00 | 100 | 959.8 |
| 20260903224640 | 66 | 275 | 10.0 | 21.0 | 0.00 | 0.00 | 0.00 | 100 | 959.9 |
| 20260903224537 | 65 | 271 | 9.0 | 21.0 | 0.00 | 0.00 | 0.00 | 100 | 959.9 |
| 20260903224334 | 65 | 264 | 7.0 | 21.0 | 0.00 | 0.00 | 0.00 | 100 | 960.0 |
| 20260903224131 | 64 | 279 | 7.0 | 16.0 | 0.00 | 0.00 | 0.00 | 100 | 960.0 |
| 20260903224030 | 64 | 282 | 9.0 | 16.0 | 0.00 | 0.00 | 0.00 | 100 | 959.9 |
| 20260903223928 | 64 | 284 | 9.0 | 18.0 | 0.00 | 0.00 | 0.00 | 100 | 960.0 |
| 20260903223725 | 63 | 289 | 9.0 | 18.0 | 0.00 | 0.00 | 0.00 | 100 | 959.9 |
| 20260903223522 | 61 | 312 | 4.0 | 11.0 | 0.00 | 0.00 | 0.00 | 100 | 959.9 |
| 20260903223421 | 60 | 309 | 4.0 | 12.0 | 0.00 | 0.00 | 0.00 | 100 | 960.1 |
| 20260903223319 | 60 | 302 | 4.0 | 15.0 | 0.00 | 0.00 | 0.00 | 100 | 959.9 |
| 20260903223115 | 63 | 282 | 5.0 | 15.0 | 0.00 | 0.00 | 0.00 | 100 | 959.9 |
| 20260903222912 | 64 | 276 | 6.0 | 12.0 | 0.00 | 0.00 | 0.00 | 100 | 960.0 |
| 20260903222811 | 63 | 270 | 6.0 | 12.0 | 0.00 | 0.00 | 0.00 | 100 | 959.9 |
| 20260903222709 | 63 | 265 | 5.0 | 12.0 | 0.00 | 0.00 | 0.00 | 100 | 960.0 |
| 20260903222506 | 61 | 292 | 4.0 | 11.0 | 0.00 | 0.00 | 0.00 | 100 | 960.1 |
| 20260903222305 | 61 | 286 | 6.0 | 14.0 | 0.00 | 0.00 | 0.00 | 100 | 960.0 |
| 20260903222202 | 61 | 288 | 6.0 | 14.0 | 0.00 | 0.00 | 0.00 | 100 | 960.1 |
| 20260903222100 | 61 | 299 | 6.0 | 14.0 | 0.00 | 0.00 | 0.00 | 100 | 960.0 |
| 20260903221857 | 59 | 319 | 4.0 | 9.0 | 0.00 | 0.00 | 0.00 | 100 | 960.1 |
| 20260903221653 | 60 | 292 | 5.0 | 9.0 | 0.00 | 0.00 | 0.00 | 100 | 960.1 |
| 20260903221552 | 61 | 285 | 5.0 | 10.0 | 0.00 | 0.00 | 0.00 | 100 | 960.1 |
| 20260903221450 | 59 | 283 | 5.0 | 10.0 | 0.00 | 0.00 | 0.00 | 100 | 960.1 |
| 20260903221247 | 59 | 289 | 4.0 | 10.0 | 0.00 | 0.00 | 0.00 | 100 | 960.1 |
| 20260903221044 | 58 | 0 | 2.0 | 5.0 | 0.00 | 0.00 | 0.00 | 100 | 960.2 |
| 20260903220943 | 56 | 0 | 1.0 | 5.0 | 0.00 | 0.00 | 0.00 | 100 | 960.1 |
| 20260903220840 | 56 | 0 | 1.0 | 3.0 | 0.00 | 0.00 | 0.00 | 100 | 960.2 |
| 20260903220638 | 56 | 351 | 2.0 | 4.0 | 0.00 | 0.00 | 0.00 | 100 | 960.2 |
| 20260903220435 | 57 | 350 | 2.0 | 4.0 | 0.00 | 0.00 | 0.00 | 100 | 960.1 |
| 20260903220334 | 57 | 343 | 2.0 | 3.0 | 0.00 | 0.00 | 0.00 | 100 | 960.1 |
| 20260903220231 | 57 | 332 | 2.0 | 4.0 | 0.00 | 0.00 | 0.00 | 100 | 960.2 |
| 20260903220029 | 56 | 296 | 2.0 | 6.0 | 0.00 | 0.00 | 0.00 | 100 | 960.0 |
| 20260903215826 | 57 | 279 | 2.0 | 6.0 | 0.00 | 0.00 | 0.00 | 100 | 960.1 |
| 20260903215725 | 57 | 290 | 2.0 | 6.0 | 0.00 | 0.00 | 0.00 | 100 | 960.0 |
| 20260903215623 | 57 | 0 | 2.0 | 4.0 | 0.00 | 0.00 | 0.00 | 100 | 960.0 |
| 20260903215420 | 57 | 21 | 2.0 | 4.0 | 0.00 | 0.00 | 0.00 | 100 | 960.0 |
| 20260903215217 | 57 | 0 | 1.0 | 4.0 | 0.00 | 0.00 | 0.00 | 100 | 960.1 |
| 20260903215116 | 58 | 0 | 1.0 | 3.0 | 0.00 | 0.00 | 0.00 | 100 | 960.0 |
| 20260903215014 | 58 | 215 | 1.0 | 3.0 | 0.00 | 0.00 | 0.00 | 100 | 960.0 |
| 20260903214811 | 58 | 0 | 1.0 | 3.0 | 0.00 | 0.00 | 0.00 | 100 | 960.0 |
| 20260903214608 | 58 | 0 | 1.0 | 2.0 | 0.00 | 0.00 | 0.00 | 100 | 960.1 |
| 20260903214507 | 58 | 0 | 0.0 | 3.0 | 0.00 | 0.00 | 0.00 | 100 | 960.1 |
| 20260903214404 | 58 | 0 | 0.0 | 3.0 | 0.00 | 0.00 | 0.00 | 100 | 960.1 |
| 20260903214201 | 58 | 0 | 0.0 | 2.0 | 0.00 | 0.00 | 0.00 | 100 | 960.1 |
| 20260903213957 | 58 | 0 | 0.0 | 3.0 | 0.00 | 0.00 | 0.00 | 100 | 960.2 |
| 20260903213857 | 58 | 0 | 1.0 | 4.0 | 0.00 | 0.00 | 0.00 | 100 | 960.1 |
| 20260903213754 | 58 | 0 | 1.0 | 4.0 | 0.00 | 0.00 | 0.00 | 100 | 960.1 |
| 20260903213551 | 58 | 0 | 1.0 | 4.0 | 0.00 | 0.00 | 0.00 | 100 | 960.1 |
| 20260903213348 | 58 | 0 | 1.0 | 4.0 | 0.00 | 0.00 | 0.00 | 100 | 960.1 |
| 20260903213247 | 58 | 0 | 1.0 | 4.0 | 0.00 | 0.00 | 0.00 | 100 | 960.0 |
| 20260903213145 | 58 | 0 | 1.0 | 4.0 | 0.00 | 0.00 | 0.00 | 100 | 960.0 |
| 20260903212941 | 58 | 0 | 1.0 | 4.0 | 0.00 | 0.00 | 0.00 | 100 | 960.0 |
| 20260903212738 | 59 | 0 | 1.0 | 3.0 | 0.00 | 0.00 | 0.00 | 100 | 960.1 |
| 20260903212638 | 59 | 0 | 1.0 | 3.0 | 0.00 | 0.00 | 0.00 | 100 | 960.1 |
| 20260903212536 | 59 | 0 | 1.0 | 3.0 | 0.00 | 0.00 | 0.00 | 100 | 960.0 |
| 20260903212333 | 59 | 0 | 1.0 | 3.0 | 0.00 | 0.00 | 0.00 | 100 | 960.2 |
| 20260903212130 | 59 | 0 | 1.0 | 3.0 | 0.00 | 0.00 | 0.00 | 100 | 960.0 |
| 20260903212029 | 60 | 241 | 1.0 | 8.0 | 0.00 | 0.00 | 0.00 | 100 | 960.0 |
| 20260903211927 | 59 | 234 | 1.0 | 8.0 | 0.00 | 0.00 | 0.00 | 100 | 960.1 |
| 20260903211724 | 59 | 234 | 2.0 | 8.0 | 0.00 | 0.00 | 0.00 | 100 | 960.0 |
| 20260903211521 | 59 | 0 | 1.0 | 5.0 | 0.00 | 0.00 | 0.00 | 100 | 960.0 |
| 20260903211420 | 59 | 0 | 1.0 | 5.0 | 0.00 | 0.00 | 0.00 | 100 | 960.0 |
| 20260903211317 | 59 | 0 | 0.0 | 3.0 | 0.00 | 0.00 | 0.00 | 100 | 960.0 |
| 20260903211114 | 59 | 234 | 1.0 | 8.0 | 0.00 | 0.00 | 0.00 | 100 | 960.0 |
| 20260903210911 | 59 | 220 | 1.0 | 8.0 | 0.00 | 0.00 | 0.00 | 100 | 959.9 |
| 20260903210810 | 59 | 224 | 1.0 | 8.0 | 0.00 | 0.00 | 0.00 | 100 | 959.9 |
| 20260903210708 | 59 | 222 | 1.0 | 4.0 | 0.00 | 0.00 | 0.00 | 100 | 960.1 |
| 20260903210504 | 60 | 230 | 1.0 | 4.0 | 0.00 | 0.00 | 0.00 | 100 | 960.0 |
| 20260903210248 | 60 | 229 | 1.0 | 5.0 | 0.00 | 0.00 | 0.00 | 100 | 959.9 |
| 20260903210148 | 61 | 232 | 1.0 | 5.0 | 0.00 | 0.00 | 0.00 | 100 | 959.9 |
| 20260903210045 | 61 | 254 | 1.0 | 7.0 | 0.00 | 0.00 | 0.00 | 100 | 959.9 |
| 20260903205842 | 61 | 244 | 1.0 | 7.0 | 0.00 | 0.00 | 0.00 | 100 | 959.9 |
| 20260903205639 | 61 | 229 | 1.0 | 5.0 | 0.00 | 0.00 | 0.00 | 100 | 960.0 |
| 20260903205538 | 61 | 237 | 2.0 | 5.0 | 0.00 | 0.00 | 0.00 | 100 | 959.9 |
| 20260903205435 | 61 | 274 | 2.0 | 5.0 | 0.00 | 0.00 | 0.00 | 100 | 959.9 |
| 20260903205232 | 60 | 286 | 2.0 | 4.0 | 0.00 | 0.00 | 0.00 | 100 | 960.0 |
| 20260903205029 | 60 | 258 | 1.0 | 4.0 | 0.00 | 0.00 | 0.00 | 100 | 960.0 |
| 20260903204827 | 59 | 0 | 1.0 | 3.0 | 0.00 | 0.00 | 0.00 | 100 | 960.1 |
| 20260903204624 | 60 | 169 | 2.0 | 4.0 | 0.00 | 0.00 | 0.00 | 100 | 960.0 |
| 20260903204421 | 60 | 146 | 2.0 | 4.0 | 0.00 | 0.00 | 0.00 | 100 | 959.9 |
| 20260903204320 | 60 | 146 | 2.0 | 4.0 | 0.00 | 0.00 | 0.00 | 100 | 959.8 |
| 20260903204218 | 60 | 150 | 2.0 | 4.0 | 0.00 | 0.00 | 0.00 | 100 | 959.9 |
| 20260903204016 | 61 | 136 | 2.0 | 4.0 | 0.00 | 0.00 | 0.00 | 100 | 959.9 |
| 20260903203812 | 61 | 91 | 3.0 | 6.0 | 0.00 | 0.00 | 0.00 | 100 | 960.0 |
| 20260903203711 | 61 | 91 | 3.0 | 6.0 | 0.00 | 0.00 | 0.00 | 100 | 960.0 |
| 20260903203609 | 61 | 89 | 2.0 | 6.0 | 0.00 | 0.00 | 0.00 | 100 | 960.1 |
| 20260903203406 | 61 | 110 | 2.0 | 4.0 | 0.00 | 0.00 | 0.00 | 100 | 960.0 |
| 20260903203202 | 60 | 105 | 2.0 | 3.0 | 0.00 | 0.00 | 0.00 | 100 | 960.1 |
| 20260903203101 | 60 | 114 | 1.0 | 4.0 | 0.00 | 0.00 | 0.00 | 100 | 960.0 |
| 20260903203000 | 60 | 130 | 1.0 | 4.0 | 0.00 | 0.00 | 0.00 | 100 | 960.1 |
| 20260903202756 | 60 | 0 | 1.0 | 5.0 | 0.00 | 0.00 | 0.00 | 100 | 960.1 |
| 20260903202553 | 61 | 312 | 2.0 | 6.0 | 0.00 | 0.00 | 0.00 | 100 | 960.2 |
| 20260903202452 | 61 | 316 | 2.0 | 6.0 | 0.00 | 0.00 | 0.00 | 100 | 960.1 |
| 20260903202350 | 61 | 306 | 2.0 | 6.0 | 0.00 | 0.00 | 0.00 | 100 | 960.1 |
| 20260903202146 | 61 | 10 | 2.0 | 3.0 | 0.00 | 0.00 | 0.00 | 100 | 960.1 |
| 20260903201943 | 61 | 340 | 2.0 | 4.0 | 0.00 | 0.00 | 0.00 | 100 | 960.0 |
| 20260903201844 | 62 | 337 | 1.0 | 4.0 | 0.00 | 0.00 | 0.00 | 100 | 960.0 |
| 20260903201740 | 62 | 317 | 1.0 | 4.0 | 0.00 | 0.00 | 0.00 | 100 | 960.1 |
| 20260903201537 | 62 | 348 | 1.0 | 5.0 | 0.00 | 0.00 | 0.00 | 100 | 959.9 |
| 20260903201333 | 61 | 6 | 1.0 | 5.0 | 0.00 | 0.00 | 0.00 | 100 | 960.0 |
| 20260903201234 | 62 | 0 | 1.0 | 2.0 | 0.00 | 0.00 | 0.00 | 100 | 960.0 |
| 20260903201131 | 62 | 0 | 1.0 | 2.0 | 0.00 | 0.00 | 0.00 | 100 | 960.1 |
| 20260903200928 | 62 | 355 | 2.0 | 3.0 | 0.00 | 0.00 | 0.00 | 100 | 960.0 |
| 20260903200724 | 62 | 355 | 1.0 | 3.0 | 0.00 | 0.00 | 0.00 | 100 | 960.2 |
| 20260903200623 | 62 | 344 | 1.0 | 6.0 | 0.00 | 0.00 | 0.00 | 100 | 960.1 |
| 20260903200521 | 62 | 270 | 2.0 | 10.0 | 0.00 | 0.00 | 0.00 | 100 | 960.1 |
| 20260903200318 | 63 | 257 | 4.0 | 15.0 | 0.00 | 0.00 | 0.00 | 100 | 960.2 |
| 20260903200115 | 63 | 244 | 5.0 | 17.0 | 0.00 | 0.00 | 0.00 | 100 | 960.0 |
| 20260903200014 | 64 | 252 | 5.0 | 17.0 | 0.00 | 0.00 | 0.00 | 100 | 960.0 |
| 20260903195911 | 64 | 253 | 6.0 | 17.0 | 0.00 | 0.00 | 0.00 | 100 | 960.1 |
| 20260903195707 | 64 | 270 | 5.0 | 16.0 | 0.00 | 0.00 | 0.00 | 100 | 960.0 |
| 20260903195504 | 62 | 276 | 3.0 | 16.0 | 0.00 | 0.00 | 0.00 | 100 | 960.1 |
| 20260903195404 | 62 | 262 | 2.0 | 6.0 | 0.00 | 0.00 | 0.00 | 100 | 960.1 |
| 20260903195301 | 62 | 246 | 2.0 | 7.0 | 0.00 | 0.00 | 0.00 | 100 | 960.1 |
| 20260903195058 | 62 | 234 | 1.0 | 7.0 | 0.00 | 0.00 | 0.00 | 100 | 960.1 |
| 20260903194855 | 62 | 230 | 1.0 | 3.0 | 0.00 | 0.00 | 0.00 | 100 | 960.0 |
| 20260903194754 | 63 | 240 | 1.0 | 7.0 | 0.00 | 0.00 | 0.00 | 100 | 960.2 |
| 20260903194652 | 63 | 285 | 2.0 | 7.0 | 0.00 | 0.00 | 0.00 | 100 | 960.2 |
| 20260903194449 | 63 | 269 | 4.0 | 12.0 | 0.00 | 0.00 | 0.00 | 100 | 960.2 |
| 20260903194246 | 64 | 265 | 5.0 | 12.0 | 0.00 | 0.00 | 0.00 | 100 | 960.1 |
| 20260903194145 | 64 | 273 | 6.0 | 12.0 | 0.00 | 0.00 | 0.00 | 100 | 960.2 |
| 20260903194042 | 63 | 270 | 6.0 | 12.0 | 0.00 | 0.00 | 0.00 | 100 | 960.1 |
| 20260903193839 | 62 | 261 | 5.0 | 12.0 | 0.00 | 0.00 | 0.00 | 100 | 960.1 |
| 20260903193636 | 62 | 244 | 3.0 | 11.0 | 0.00 | 0.00 | 0.00 | 100 | 960.2 |
| 20260903193535 | 62 | 265 | 3.0 | 11.0 | 0.00 | 0.00 | 0.00 | 100 | 960.1 |
| 20260903193432 | 62 | 268 | 4.0 | 17.0 | 0.00 | 0.00 | 0.00 | 100 | 960.2 |
| 20260903193229 | 62 | 273 | 4.0 | 17.0 | 0.00 | 0.00 | 0.00 | 100 | 960.2 |
| 20260903193025 | 58 | 0 | 1.0 | 9.0 | 0.00 | 0.00 | 0.00 | 100 | 960.1 |
| 20260903192925 | 59 | 0 | 1.0 | 4.0 | 0.00 | 0.00 | 0.00 | 100 | 960.3 |
| 20260903192822 | 59 | 0 | 1.0 | 5.0 | 0.00 | 0.00 | 0.00 | 100 | 960.2 |
| 20260903192619 | 59 | 244 | 1.0 | 5.0 | 0.00 | 0.00 | 0.00 | 100 | 960.2 |
| 20260903192415 | 59 | 242 | 1.0 | 4.0 | 0.00 | 0.00 | 0.00 | 100 | 960.1 |
| 20260903192315 | 59 | 0 | 1.0 | 4.0 | 0.00 | 0.00 | 0.00 | 100 | 960.2 |
| 20260903192213 | 59 | 0 | 1.0 | 4.0 | 0.00 | 0.00 | 0.00 | 100 | 960.2 |
| 20260903192009 | 59 | 0 | 1.0 | 4.0 | 0.00 | 0.00 | 0.00 | 100 | 960.3 |
| 20260903191806 | 60 | 0 | 1.0 | 3.0 | 0.00 | 0.00 | 0.00 | 100 | 960.3 |
| 20260903191705 | 60 | 0 | 1.0 | 3.0 | 0.00 | 0.00 | 0.00 | 100 | 960.2 |
| 20260903191603 | 60 | 0 | 1.0 | 3.0 | 0.00 | 0.00 | 0.00 | 100 | 960.3 |
| 20260903191400 | 60 | 248 | 2.0 | 6.0 | 0.00 | 0.00 | 0.00 | 100 | 960.3 |
| 20260903191157 | 60 | 239 | 1.0 | 6.0 | 0.00 | 0.00 | 0.00 | 100 | 960.2 |
| 20260903191056 | 60 | 238 | 1.0 | 6.0 | 0.00 | 0.00 | 0.00 | 100 | 960.4 |
| 20260903190953 | 60 | 0 | 1.0 | 3.0 | 0.00 | 0.00 | 0.00 | 100 | 960.4 |
| 20260903190750 | 60 | 215 | 1.0 | 5.0 | 0.00 | 0.00 | 0.00 | 100 | 960.3 |
| 20260903190547 | 60 | 217 | 1.0 | 5.0 | 0.00 | 0.00 | 0.00 | 100 | 960.4 |
| 20260903190446 | 60 | 223 | 1.0 | 5.0 | 0.00 | 0.00 | 0.00 | 100 | 960.4 |
| 20260903190344 | 59 | 231 | 2.0 | 6.0 | 0.00 | 0.00 | 0.00 | 100 | 960.4 |
| 20260903190141 | 59 | 241 | 2.0 | 6.0 | 0.00 | 0.00 | 0.00 | 100 | 960.3 |
| 20260903185937 | 59 | 0 | 1.0 | 4.0 | 0.00 | 0.00 | 0.00 | 100 | 960.3 |
| 20260903185837 | 60 | 0 | 1.0 | 6.0 | 0.00 | 0.00 | 0.00 | 100 | 960.2 |
| 20260903185734 | 60 | 220 | 1.0 | 6.0 | 0.00 | 0.00 | 0.00 | 100 | 960.2 |
| 20260903185531 | 59 | 237 | 1.0 | 6.0 | 0.00 | 0.00 | 0.00 | 100 | 960.3 |
| 20260903185328 | 59 | 0 | 1.0 | 6.0 | 0.00 | 0.00 | 0.00 | 100 | 960.4 |
| 20260903185227 | 59 | 0 | 1.0 | 4.0 | 0.00 | 0.00 | 0.00 | 100 | 960.4 |
| 20260903185125 | 59 | 0 | 1.0 | 4.0 | 0.00 | 0.00 | 0.00 | 100 | 960.4 |
| 20260903184923 | 59 | 230 | 1.0 | 4.0 | 0.00 | 0.00 | 0.00 | 100 | 960.3 |
| 20260903184719 | 60 | 0 | 1.0 | 3.0 | 0.00 | 0.00 | 0.00 | 100 | 960.3 |
| 20260903184619 | 60 | 0 | 1.0 | 3.0 | 0.00 | 0.00 | 0.00 | 100 | 960.3 |
| 20260903184516 | 60 | 0 | 1.0 | 4.0 | 0.00 | 0.00 | 0.00 | 100 | 960.3 |
| 20260903184314 | 59 | 228 | 1.0 | 4.0 | 0.00 | 0.00 | 0.00 | 100 | 960.2 |
| 20260903184110 | 59 | 0 | 1.0 | 4.0 | 0.00 | 0.00 | 0.00 | 100 | 960.3 |
| 20260903184009 | 59 | 0 | 0.0 | 3.0 | 0.00 | 0.00 | 0.00 | 100 | 960.3 |
| 20260903183907 | 59 | 0 | 1.0 | 4.0 | 0.00 | 0.00 | 0.00 | 100 | 960.2 |
| 20260903183704 | 59 | 0 | 1.0 | 4.0 | 0.00 | 0.00 | 0.00 | 100 | 960.3 |
| 20260903183501 | 59 | 0 | 1.0 | 4.0 | 0.00 | 0.00 | 0.00 | 100 | 960.2 |
| 20260903183259 | 59 | 0 | 1.0 | 4.0 | 0.00 | 0.00 | 0.00 | 100 | 960.3 |
| 20260903183055 | 59 | 0 | 1.0 | 3.0 | 0.00 | 0.00 | 0.00 | 100 | 960.2 |
| 20260903182852 | 59 | 0 | 1.0 | 4.0 | 0.00 | 0.00 | 0.00 | 100 | 960.2 |
| 20260903182752 | 59 | 0 | 1.0 | 4.0 | 0.00 | 0.00 | 0.00 | 100 | 960.2 |
| 20260903182649 | 59 | 0 | 1.0 | 4.0 | 0.00 | 0.00 | 0.00 | 100 | 960.2 |
| 20260903182446 | 59 | 0 | 1.0 | 4.0 | 0.00 | 0.00 | 0.00 | 100 | 960.2 |
| 20260903182233 | 59 | 0 | 0.0 | 4.0 | 0.00 | 0.00 | 0.00 | 100 | 960.1 |
| 20260903182132 | 59 | 0 | 0.0 | 4.0 | 0.00 | 0.00 | 0.00 | 100 | 960.2 |
| 20260903182030 | 59 | 0 | 0.0 | 2.0 | 0.00 | 0.00 | 0.00 | 100 | 960.2 |
| 20260903181827 | 59 | 0 | 0.0 | 2.0 | 0.00 | 0.00 | 0.00 | 100 | 960.2 |
| 20260903181624 | 59 | 0 | 0.0 | 2.0 | 0.00 | 0.00 | 0.00 | 100 | 960.2 |
| 20260903181523 | 59 | 0 | 0.0 | 2.0 | 0.00 | 0.00 | 0.00 | 100 | 960.1 |
| 20260903181421 | 59 | 0 | 0.0 | 3.0 | 0.00 | 0.00 | 0.00 | 100 | 960.0 |
| 20260903181217 | 59 | 0 | 1.0 | 3.0 | 0.00 | 0.00 | 0.00 | 100 | 960.0 |
| 20260903181014 | 59 | 0 | 1.0 | 2.0 | 0.00 | 0.00 | 0.00 | 100 | 960.1 |
| 20260903180913 | 59 | 0 | 1.0 | 3.0 | 0.00 | 0.00 | 0.00 | 100 | 960.1 |
| 20260903180811 | 59 | 0 | 1.0 | 3.0 | 0.00 | 0.00 | 0.00 | 100 | 960.1 |
| 20260903180607 | 59 | 0 | 0.0 | 2.0 | 0.00 | 0.00 | 0.00 | 100 | 960.1 |
| 20260903180404 | 60 | 0 | 0.0 | 2.0 | 0.00 | 0.00 | 0.00 | 100 | 960.0 |
| 20260903180304 | 60 | 0 | 0.0 | 3.0 | 0.00 | 0.00 | 0.00 | 100 | 960.0 |
| 20260903180202 | 60 | 0 | 0.0 | 3.0 | 0.00 | 0.00 | 0.00 | 100 | 960.0 |
| 20260903175959 | 60 | 0 | 0.0 | 3.0 | 0.00 | 0.00 | 0.00 | 100 | 960.0 |
| 20260903175756 | 60 | 0 | 1.0 | 3.0 | 0.00 | 0.00 | 0.00 | 100 | 959.9 |
| 20260903175655 | 60 | 0 | 0.0 | 3.0 | 0.00 | 0.00 | 0.00 | 100 | 960.0 |
| 20260903175553 | 60 | 0 | 1.0 | 3.0 | 0.00 | 0.00 | 0.00 | 100 | 960.0 |
| 20260903175350 | 61 | 0 | 1.0 | 3.0 | 0.00 | 0.00 | 0.00 | 100 | 960.1 |
| 20260903175147 | 61 | 0 | 1.0 | 3.0 | 0.00 | 0.00 | 0.00 | 100 | 960.2 |
| 20260903175046 | 61 | 0 | 1.0 | 3.0 | 0.00 | 0.00 | 0.00 | 100 | 960.1 |
| 20260903174943 | 62 | 0 | 1.0 | 5.0 | 0.00 | 0.00 | 0.00 | 100 | 960.2 |
| 20260903174740 | 62 | 0 | 1.0 | 5.0 | 0.00 | 0.00 | 0.00 | 100 | 960.2 |
| 20260903174538 | 62 | 0 | 1.0 | 4.0 | 0.00 | 0.00 | 0.00 | 100 | 960.1 |
| 20260903174437 | 62 | 0 | 1.0 | 4.0 | 0.00 | 0.00 | 0.00 | 100 | 960.1 |
| 20260903174334 | 62 | 0 | 1.0 | 3.0 | 0.00 | 0.00 | 0.00 | 100 | 960.2 |
| 20260903174131 | 62 | 0 | 0.0 | 3.0 | 0.00 | 0.00 | 0.00 | 100 | 960.1 |
| 20260903173927 | 62 | 0 | 0.0 | 3.0 | 0.00 | 0.00 | 0.00 | 100 | 960.1 |
| 20260903173827 | 62 | 0 | 1.0 | 3.0 | 0.00 | 0.00 | 0.00 | 100 | 960.0 |
| 20260903173724 | 62 | 0 | 1.0 | 3.0 | 0.00 | 0.00 | 0.00 | 100 | 960.0 |
| 20260903173521 | 62 | 0 | 1.0 | 3.0 | 0.00 | 0.00 | 0.00 | 100 | 960.0 |
| 20260903173318 | 62 | 0 | 1.0 | 3.0 | 0.00 | 0.00 | 0.00 | 100 | 960.0 |
| 20260903173218 | 62 | 0 | 1.0 | 3.0 | 0.00 | 0.00 | 0.00 | 100 | 960.0 |
| 20260903173116 | 63 | 0 | 1.0 | 4.0 | 0.00 | 0.00 | 0.00 | 100 | 959.9 |
| 20260903172912 | 63 | 263 | 1.0 | 10.0 | 0.00 | 0.00 | 0.00 | 100 | 960.1 |
| 20260903172709 | 64 | 260 | 2.0 | 10.0 | 0.00 | 0.00 | 0.00 | 100 | 960.0 |
| 20260903172506 | 63 | 0 | 1.0 | 6.0 | 0.00 | 0.00 | 0.00 | 100 | 960.1 |
| 20260903172306 | 63 | 0 | 0.0 | 3.0 | 0.00 | 0.00 | 0.00 | 100 | 960.1 |
| 20260903172059 | 64 | 0 | 1.0 | 4.0 | 0.00 | 0.00 | 0.00 | 100 | 960.1 |
| 20260903171958 | 63 | 0 | 1.0 | 4.0 | 0.00 | 0.00 | 0.00 | 100 | 960.1 |
| 20260903171856 | 63 | 0 | 1.0 | 4.0 | 0.00 | 0.00 | 0.00 | 100 | 960.1 |
| 20260903171653 | 63 | 0 | 1.0 | 2.0 | 0.00 | 0.00 | 0.00 | 100 | 960.1 |
| 20260903171450 | 63 | 0 | 0.0 | 3.0 | 0.00 | 0.00 | 0.00 | 100 | 960.1 |
| 20260903171350 | 63 | 0 | 0.0 | 2.0 | 0.00 | 0.00 | 0.00 | 100 | 960.0 |
| 20260903171248 | 63 | 0 | 0.0 | 2.0 | 0.00 | 0.00 | 0.00 | 100 | 959.9 |
| 20260903171045 | 64 | 0 | 0.0 | 3.0 | 0.00 | 0.00 | 0.00 | 100 | 959.9 |
| 20260903170842 | 64 | 0 | 1.0 | 3.0 | 0.00 | 0.00 | 0.00 | 100 | 960.0 |
| 20260903170741 | 64 | 0 | 1.0 | 2.0 | 0.00 | 0.00 | 0.00 | 100 | 960.0 |
| 20260903170638 | 64 | 0 | 0.0 | 2.0 | 0.00 | 0.00 | 0.00 | 100 | 959.9 |
| 20260903170436 | 64 | 0 | 0.0 | 2.0 | 0.00 | 0.00 | 0.00 | 100 | 959.9 |
| 20260903170233 | 64 | 0 | 0.0 | 2.0 | 0.00 | 0.00 | 0.00 | 100 | 960.0 |
| 20260903170133 | 65 | 0 | 0.0 | 2.0 | 0.00 | 0.00 | 0.00 | 100 | 960.0 |
| 20260903170030 | 65 | 0 | 0.0 | 2.0 | 0.00 | 0.00 | 0.00 | 100 | 960.0 |
| 20260903165827 | 65 | 0 | 0.0 | 2.0 | 0.00 | 0.00 | 0.00 | 100 | 960.0 |
| 20260903165624 | 65 | 0 | 0.0 | 2.0 | 0.00 | 0.00 | 0.00 | 100 | 960.1 |
| 20260903165523 | 65 | 0 | 0.0 | 2.0 | 0.00 | 0.00 | 0.00 | 100 | 960.0 |
| 20260903165421 | 65 | 0 | 0.0 | 1.0 | 0.00 | 0.00 | 0.00 | 100 | 960.0 |
| 20260903165217 | 66 | 0 | 0.0 | 1.0 | 0.00 | 0.00 | 0.00 | 100 | 960.0 |
| 20260903165014 | 66 | 0 | 0.0 | 2.0 | 0.00 | 0.00 | 0.00 | 100 | 959.9 |
| 20260903164913 | 66 | 0 | 0.0 | 2.0 | 0.00 | 0.00 | 0.00 | 100 | 960.0 |
| 20260903164811 | 66 | 0 | 0.0 | 2.0 | 0.00 | 0.00 | 0.00 | 100 | 960.0 |
| 20260903164608 | 66 | 0 | 0.0 | 2.0 | 0.00 | 0.00 | 0.00 | 100 | 960.1 |
| 20260903164405 | 66 | 0 | 0.0 | 2.0 | 0.00 | 0.00 | 0.00 | 100 | 960.1 |
| 20260903164304 | 66 | 0 | 0.0 | 2.0 | 0.00 | 0.00 | 0.00 | 100 | 960.0 |
| 20260903164201 | 66 | 0 | 0.0 | 1.0 | 0.00 | 0.00 | 0.00 | 100 | 960.0 |
| 20260903163958 | 66 | 0 | 0.0 | 2.0 | 0.00 | 0.00 | 0.00 | 100 | 960.0 |
| 20260903163755 | 67 | 0 | 0.0 | 2.0 | 0.00 | 0.00 | 0.00 | 100 | 960.0 |
| 20260903163654 | 67 | 0 | 0.0 | 2.0 | 0.00 | 0.00 | 0.00 | 100 | 960.0 |
| 20260903163551 | 67 | 0 | 0.0 | 2.0 | 0.00 | 0.00 | 0.00 | 100 | 960.0 |
| 20260903163348 | 67 | 0 | 0.0 | 2.0 | 0.00 | 0.00 | 0.00 | 100 | 960.0 |
| 20260903163144 | 67 | 0 | 0.0 | 2.0 | 0.00 | 0.00 | 0.00 | 100 | 960.0 |
| 20260903163044 | 67 | 0 | 0.0 | 2.0 | 0.00 | 0.00 | 0.00 | 100 | 959.9 |
| 20260903162942 | 67 | 0 | 0.0 | 2.0 | 0.00 | 0.00 | 0.00 | 100 | 960.0 |
| 20260903162739 | 67 | 0 | 0.0 | 2.0 | 0.00 | 0.00 | 0.00 | 100 | 959.9 |
| 20260903162537 | 67 | 0 | 0.0 | 2.0 | 0.00 | 0.00 | 0.00 | 100 | 960.0 |
| 20260903162436 | 67 | 0 | 0.0 | 2.0 | 0.00 | 0.00 | 0.00 | 100 | 959.8 |
| 20260903162333 | 67 | 0 | 0.0 | 1.0 | 0.00 | 0.00 | 0.00 | 100 | 960.0 |
| 20260903162130 | 67 | 0 | 0.0 | 2.0 | 0.00 | 0.00 | 0.00 | 100 | 959.9 |
| 20260903161927 | 66 | 0 | 0.0 | 2.0 | 0.00 | 0.00 | 0.00 | 100 | 959.9 |
| 20260903161826 | 66 | 0 | 0.0 | 2.0 | 0.00 | 0.00 | 0.00 | 100 | 960.0 |
| 20260903161724 | 66 | 0 | 0.0 | 3.0 | 0.00 | 0.00 | 0.00 | 100 | 960.0 |
| 20260903161520 | 66 | 268 | 1.0 | 4.0 | 0.00 | 0.00 | 0.00 | 100 | 960.0 |
| 20260903161317 | 66 | 270 | 2.0 | 4.0 | 0.00 | 0.00 | 0.00 | 100 | 960.0 |
| 20260903161217 | 67 | 269 | 1.0 | 3.0 | 0.00 | 0.00 | 0.00 | 100 | 960.0 |
| 20260903161115 | 67 | 267 | 1.0 | 4.0 | 0.00 | 0.00 | 0.00 | 100 | 960.0 |
| 20260903160912 | 67 | 267 | 1.0 | 4.0 | 0.00 | 0.00 | 0.00 | 100 | 959.9 |
| 20260903160708 | 67 | 0 | 0.0 | 2.0 | 0.00 | 0.00 | 0.00 | 100 | 960.0 |
| 20260903160607 | 67 | 320 | 1.0 | 3.0 | 0.00 | 0.00 | 0.00 | 100 | 960.0 |
| 20260903160505 | 67 | 320 | 1.0 | 3.0 | 0.00 | 0.00 | 0.00 | 100 | 960.0 |
| 20260903160301 | 67 | 298 | 1.0 | 3.0 | 0.00 | 0.00 | 0.00 | 100 | 959.9 |
| 20260903160058 | 67 | 268 | 1.0 | 3.0 | 0.00 | 0.00 | 0.00 | 100 | 960.0 |
| 20260903155957 | 67 | 266 | 1.0 | 4.0 | 0.00 | 0.00 | 0.00 | 100 | 959.9 |
| 20260903155855 | 67 | 253 | 1.0 | 4.0 | 0.00 | 0.00 | 0.00 | 100 | 959.9 |
| 20260903155652 | 67 | 0 | 1.0 | 4.0 | 0.00 | 0.00 | 0.00 | 100 | 959.9 |
| 20260903155448 | 68 | 0 | 0.0 | 4.0 | 0.00 | 0.00 | 0.00 | 100 | 959.9 |
| 20260903155348 | 68 | 0 | 0.0 | 2.0 | 0.00 | 0.00 | 0.00 | 100 | 959.9 |
| 20260903155246 | 68 | 0 | 0.0 | 2.0 | 0.00 | 0.00 | 0.00 | 100 | 959.9 |
| 20260903155043 | 68 | 0 | 0.0 | 3.0 | 0.00 | 0.00 | 0.00 | 100 | 960.0 |
| 20260903154839 | 68 | 0 | 0.0 | 4.0 | 0.00 | 0.00 | 0.00 | 100 | 959.9 |
| 20260903154739 | 68 | 0 | 1.0 | 4.0 | 0.00 | 0.00 | 0.00 | 100 | 960.0 |
| 20260903154636 | 68 | 0 | 1.0 | 4.0 | 0.00 | 0.00 | 0.00 | 100 | 960.0 |
| 20260903154420 | 68 | 0 | 1.0 | 3.0 | 0.00 | 0.00 | 0.00 | 100 | 960.0 |
| 20260903154217 | 68 | 227 | 1.0 | 4.0 | 0.00 | 0.00 | 0.00 | 100 | 960.0 |
| 20260903154116 | 68 | 231 | 1.0 | 4.0 | 0.00 | 0.00 | 0.00 | 100 | 960.1 |
| 20260903154013 | 68 | 239 | 1.0 | 4.0 | 0.00 | 0.00 | 0.00 | 100 | 960.1 |
| 20260903153810 | 68 | 251 | 1.0 | 4.0 | 0.00 | 0.00 | 0.00 | 100 | 960.2 |
| 20260903153607 | 68 | 0 | 1.0 | 3.0 | 0.00 | 0.00 | 0.00 | 100 | 960.1 |
| 20260903153507 | 67 | 141 | 1.0 | 5.0 | 0.00 | 0.00 | 0.00 | 100 | 960.1 |
| 20260903153404 | 67 | 135 | 2.0 | 5.0 | 0.00 | 0.00 | 0.00 | 100 | 960.2 |
| 20260903153201 | 67 | 152 | 3.0 | 5.0 | 0.00 | 0.00 | 0.00 | 100 | 960.1 |
| 20260903152958 | 67 | 301 | 3.0 | 5.0 | 0.00 | 0.00 | 0.00 | 100 | 960.0 |
| 20260903152857 | 67 | 305 | 3.0 | 5.0 | 0.00 | 0.00 | 0.00 | 100 | 960.1 |
| 20260903152755 | 67 | 307 | 3.0 | 5.0 | 0.00 | 0.00 | 0.00 | 100 | 960.1 |
| 20260903152552 | 67 | 292 | 2.0 | 5.0 | 0.00 | 0.00 | 0.00 | 100 | 960.1 |
| 20260903152349 | 67 | 274 | 2.0 | 5.0 | 0.00 | 0.00 | 0.00 | 100 | 960.1 |
| 20260903152248 | 67 | 278 | 2.0 | 5.0 | 0.00 | 0.00 | 0.00 | 100 | 960.0 |
| 20260903152146 | 67 | 287 | 3.0 | 6.0 | 0.00 | 0.00 | 0.00 | 100 | 960.2 |
| 20260903151942 | 67 | 305 | 3.0 | 6.0 | 0.00 | 0.00 | 0.00 | 100 | 960.2 |
| 20260903151740 | 67 | 305 | 2.0 | 4.0 | 0.00 | 0.00 | 0.00 | 100 | 960.2 |
| 20260903151639 | 67 | 298 | 2.0 | 5.0 | 0.00 | 0.00 | 0.00 | 100 | 960.1 |
| 20260903151536 | 67 | 284 | 2.0 | 5.0 | 0.00 | 0.00 | 0.00 | 100 | 960.1 |
| 20260903151333 | 67 | 299 | 3.0 | 5.0 | 0.00 | 0.00 | 0.00 | 100 | 960.2 |
| 20260903151130 | 67 | 295 | 2.0 | 5.0 | 0.00 | 0.00 | 0.00 | 100 | 960.2 |
| 20260903151029 | 67 | 277 | 2.0 | 7.0 | 0.00 | 0.00 | 0.00 | 100 | 960.2 |
| 20260903150927 | 67 | 262 | 2.0 | 7.0 | 0.00 | 0.00 | 0.00 | 100 | 960.2 |
| 20260903150724 | 67 | 282 | 5.0 | 8.0 | 0.00 | 0.00 | 0.00 | 100 | 960.2 |
| 20260903150520 | 66 | 294 | 6.0 | 8.0 | 0.00 | 0.00 | 0.00 | 100 | 960.3 |
| 20260903150420 | 66 | 299 | 6.0 | 8.0 | 0.00 | 0.00 | 0.00 | 100 | 960.2 |
| 20260903150317 | 67 | 313 | 5.0 | 7.0 | 0.00 | 0.00 | 0.00 | 100 | 960.2 |
| 20260903150114 | 67 | 314 | 4.0 | 8.0 | 0.00 | 0.00 | 0.00 | 100 | 960.1 |
| 20260903145911 | 67 | 321 | 4.0 | 8.0 | 0.00 | 0.00 | 0.00 | 100 | 960.2 |
| 20260903145810 | 67 | 319 | 3.0 | 8.0 | 0.00 | 0.00 | 0.00 | 100 | 960.2 |